ECMWFNIL_con_mucape_000.txt.gz
CAPE
0 0 0 0 0 0 0 0 0 0 0 0 0 0 0 0 0 0 0 0 0 0 0 0 0 0 0 0 0 0 0 0 0 0 0 6 16 32 165 262 138 184
0 0 0 0 0 0 0 0 0 0 0 0 0 0 0 0 0 0 0 0 0 0 0 0 0 0 0 0 1 2 0 0 0 0 2 6 2 3 27 96 256 274
0 0 0 0 0 0 0 0 0 0 0 0 0 0 0 0 0 0 0 0 0 0 0 0 0 0 0 0 0 2 5 5 5 3 4 7 14 14 6 18 73 197
0 0 0 0 0 0 0 0 0 0 0 0 0 0 0 0 0 0 0 0 0 0 0 0 0 0 1 2 0 0 0 1 3 5 5 4 4 9 16 20 21 92
0 0 0 0 0 0 0 0 0 0 0 0 0 0 0 0 0 0 0 0 0 0 0 0 0 0 0 1 4 2 0 0 0 3 4 1 1 2 4 19 33 42
0 0 0 0 0 0 0 0 0 0 0 0 0 0 0 0 0 0 0 0 0 0 0 0 0 0 1 2 2 4 4 1 0 0 0 2 2 4 4 11 26 42
0 0 0 0 0 0 0 0 0 0 0 0 0 0 0 0 0 0 0 0 0 0 0 0 0 0 0 1 1 2 4 8 6 3 1 0 1 0 0 0 4 7
0 0 0 0 0 0 0 0 0 0 0 0 0 0 0 0 0 0 0 0 0 0 0 0 0 0 0 0 1 1 2 6 7 3 4 2 3 1 0 0 0 0
0 0 0 0 0 0 0 0 0 0 0 0 0 0 0 0 0 0 0 0 0 0 0 0 0 0 0 1 0 2 1 1 4 5 6 6 4 2 0 0 0 0
0 0 0 0 0 0 0 0 0 0 0 0 0 0 0 0 0 0 0 0 0 0 0 0 1 0 0 1 1 0 0 0 0 1 2 4 4 3 1 0 0 0
0 0 0 0 0 0 0 0 0 0 0 0 0 0 0 0 0 0 0 0 0 0 0 0 0 0 0 1 1 0 0 0 0 0 1 1 0 4 4 4 1 0
0 0 0 0 0 0 0 0 0 0 0 0 0 0 0 0 0 0 0 0 0 0 0 0 1 1 1 0 0 0 0 0 0 0 0 1 2 0 1 4 4 2
0 0 0 0 0 0 0 0 0 0 0 0 0 0 0 0 0 0 0 0 0 0 0 1 2 0 0 0 0 0 0 0 0 0 0 0 2 1 0 4 6 3
0 0 0 0 0 0 0 0 0 0 0 0 0 0 0 0 0 0 0 0 0 0 1 4 3 0 0 0 0 0 0 0 0 0 0 1 2 1 2 3 4 4
0 0 0 0 0 0 0 0 0 0 0 0 0 0 0 0 0 0 0 0 0 0 0 1 1 0 0 0 0 0 0 0 0 0 0 0 2 2 2 2 2 3
0 0 0 0 0 0 0 0 0 0 0 0 0 0 0 0 0 0 0 0 0 0 0 0 1 1 1 0 0 0 0 0 0 1 1 0 3 4 6 8 5 3
0 0 0 0 0 0 0 0 0 0 0 0 0 0 0 0 0 0 0 0 0 0 0 0 2 3 0 0 0 0 1 0 0 0 0 1 2 0 0 0 2 7
0 0 0 0 0 0 0 0 0 0 0 0 0 0 0 0 0 0 0 0 0 0 0 1 1 0 0 0 0 0 0 0 0 3 5 6 5 2 3 2 1 0
0 0 0 0 0 0 0 0 0 0 0 0 0 0 0 0 0 1 0 0 0 0 2 2 1 0 0 0 0 0 0 0 0 0 0 0 4 0 4 1 5 3
0 0 0 0 0 0 0 0 0 0 0 0 0 1 2 0 0 0 1 2 5 1 1 1 1 0 0 0 0 0 0 0 0 0 0 0 2 5 6 2 4 3
0 0 0 0 0 0 0 0 0 0 0 0 0 0 0 0 0 0 2 8 2 3 2 1 2 0 0 0 0 0 0 0 1 1 0 0 0 1 0 4 1 1
0 0 0 0 0 0 0 0 0 0 0 0 0 0 0 0 3 7 9 6 2 2 3 1 1 0 0 0 0 0 0 0 1 5 5 6 1 5 4 3 1 0
0 0 0 0 0 0 0 0 0 0 0 0 0 0 0 0 0 0 3 4 2 2 1 0 0 0 0 0 0 0 0 0 1 0 1 2 6 1 1 0 0 0
0 0 0 0 0 0 0 0 0 0 0 0 0 0 0 0 0 0 3 1 0 0 0 0 0 0 0 0 0 1 1 1 0 0 0 2 2 4 1 0 0 1
0 0 0 0 0 0 0 0 0 0 0 1 1 0 0 0 0 0 1 0 1 0 0 0 0 0 0 0 0 0 1 1 1 1 2 2 1 3 1 0 4 5
0 0 0 0 0 0 0 0 0 0 0 1 0 0 0 0 1 1 1 2 0 0 0 0 0 0 0 0 0 0 0 1 0 4 3 1 1 1 4 1 0 3

ECMWFNIL_con_mucape_003.txt.gz
CAPE
0 0 0 0 0 0 0 0 0 0 0 0 0 0 0 0 0 0 0 0 0 0 0 0 0 0 0 0 0 0 0 0 0 0 0 0 0 0 0 1 98 167
0 0 0 0 0 0 0 0 0 0 0 0 0 0 0 0 0 0 0 0 0 0 0 0 0 0 0 0 0 0 0 0 0 0 0 0 0 0 0 0 0 27
0 0 0 0 0 0 0 0 0 0 0 0 0 0 0 0 0 0 0 0 0 0 0 0 0 0 0 0 0 0 0 0 0 0 0 0 0 0 0 0 0 0
0 0 0 0 0 0 0 0 0 0 0 0 0 0 0 0 0 0 0 0 0 0 0 0 0 0 0 0 0 0 0 0 0 0 0 0 0 0 0 0 0 0
0 0 0 0 0 0 0 0 0 0 0 0 0 0 0 0 0 0 0 0 0 0 0 0 0 0 0 0 0 0 0 0 0 0 0 0 0 0 0 0 0 0
0 0 0 0 0 0 0 0 0 0 0 0 0 0 0 0 0 0 0 0 0 0 0 0 0 0 0 0 0 0 0 0 0 0 0 0 0 0 0 0 0 0
0 0 0 0 0 0 0 0 0 0 0 0 0 0 0 0 0 0 0 0 0 0 0 0 0 0 0 0 0 0 0 0 0 0 0 0 0 0 0 0 0 0
0 0 0 0 0 0 0 0 0 0 0 0 0 0 0 0 0 0 0 0 0 0 0 0 0 0 0 0 0 0 0 0 0 0 0 0 0 0 0 0 0 0
0 0 0 0 0 0 0 0 0 0 0 0 0 0 0 0 0 0 0 0 0 0 0 0 0 0 0 0 0 0 0 0 0 0 0 0 0 0 0 0 0 0
0 0 0 0 0 0 0 0 0 0 0 0 0 0 0 0 0 0 0 0 0 0 0 0 0 0 0 0 0 0 0 0 0 0 0 0 0 0 0 0 0 0
0 0 0 0 0 0 0 0 0 0 0 0 0 0 0 0 0 0 0 0 0 0 0 0 0 0 0 0 0 0 0 0 0 0 0 0 0 0 0 0 0 0
0 0 0 0 0 0 0 0 0 0 0 0 0 0 0 0 0 0 0 0 0 0 0 0 0 0 0 0 0 0 0 0 0 0 0 0 0 0 0 0 0 1
0 0 0 0 0 0 0 0 0 0 0 0 0 0 0 0 0 0 0 0 0 0 0 0 0 0 0 0 0 0 0 0 0 3 2 3 2 1 0 0 0 0
0 0 0 0 0 0 0 0 0 0 0 0 0 0 0 0 0 0 0 0 0 0 0 0 0 0 0 0 0 0 0 0 3 4 6 5 7 5 3 2 1 1
0 0 0 0 0 0 0 0 0 0 0 0 0 0 0 0 0 0 0 0 0 0 0 0 0 0 0 0 0 0 0 0 1 7 10 10 9 10 12 11 7 2
0 0 0 0 0 0 0 0 0 0 0 0 0 0 0 0 0 0 0 0 0 0 0 0 0 0 0 0 0 0 0 1 3 4 6 8 10 9 7 4 2 1
0 0 0 0 0 0 0 0 0 0 0 0 0 0 0 0 0 0 0 0 0 0 0 0 0 0 0 0 0 0 0 0 0 0 0 0 0 2 4 6 6 7
0 0 0 0 0 0 0 0 0 0 0 0 0 0 0 0 0 0 0 0 0 0 0 0 0 0 0 0 0 0 0 0 0 0 0 0 0 0 0 3 6 11
0 0 0 0 0 0 0 0 0 0 0 0 0 0 0 0 0 0 0 0 0 0 0 0 0 0 0 0 0 0 0 0 0 0 0 0 0 0 0 0 0 1
0 0 0 0 0 0 0 0 0 0 0 0 0 0 0 0 0 0 0 0 0 0 0 0 0 0 0 0 0 0 0 0 0 0 0 0 0 0 0 0 0 0
0 0 0 0 0 0 0 0 0 0 0 0 0 0 0 0 0 0 0 0 0 0 0 0 0 0 0 0 0 0 0 0 0 0 0 0 0 0 0 0 2 1
0 0 0 0 0 0 0 0 0 0 0 0 0 0 0 0 0 0 0 0 0 0 0 0 0 0 0 0 0 0 0 0 0 0 0 0 0 0 1 1 1 2
0 0 0 0 0 0 0 0 0 0 0 0 0 0 0 0 0 0 0 0 0 0 0 0 0 0 0 0 0 0 0 0 0 0 0 0 1 1 2 2 2 3
0 0 0 0 0 0 0 0 0 0 0 0 0 0 0 0 0 0 0 0 0 0 0 0 0 0 0 0 0 0 0 0 0 0 0 0 0 1 1 2 2 19
0 0 0 0 0 0 0 0 0 0 0 0 0 0 0 0 0 0 0 0 0 0 0 0 0 0 0 0 0 0 0 0 0 0 0 0 0 0 0 0 2 4
0 0 0 0 0 0 0 0 0 0 0 0 0 0 0 0 0 0 0 0 0 0 0 0 0 0 0 0 0 0 0 0 0 0 0 0 0 0 0 1 1 3

ECMWFNIL_con_mucape_006.txt.gz
CAPE
0 0 0 0 0 0 0 0 0 0 0 0 0 0 0 0 0 0 0 0 0 0 0 0 0 0 0 0 0 0 0 0 0 0 0 0 0 0 0 0 0 0
0 0 0 0 0 0 0 0 0 0 0 0 0 0 0 0 0 0 0 0 0 0 0 0 0 0 0 0 0 0 0 0 0 0 0 0 0 0 0 0 0 0
0 0 0 0 0 0 0 0 0 0 0 0 0 0 0 0 0 0 0 0 0 0 0 0 0 0 0 0 0 0 0 0 0 0 0 0 0 0 0 0 0 0
0 0 0 0 0 0 0 0 0 0 0 0 0 0 0 0 0 0 0 0 0 0 0 0 0 0 0 0 0 0 0 0 0 0 0 0 0 0 0 0 0 0
0 0 0 0 0 0 0 0 0 0 0 0 0 0 0 0 0 0 0 0 0 0 0 0 0 0 0 0 0 0 0 0 0 0 0 0 0 0 0 0 0 0
0 0 0 0 0 0 0 0 0 0 0 0 0 0 0 0 0 0 0 0 0 0 0 0 0 0 0 0 0 0 0 0 0 0 0 0 0 0 0 0 0 0
0 0 0 0 0 0 0 0 0 0 0 0 0 0 0 0 0 0 0 0 0 0 0 0 0 0 0 0 0 0 0 0 0 0 0 0 0 0 0 0 0 0
0 0 0 0 0 0 0 0 0 0 0 0 0 0 0 0 0 0 0 0 0 0 0 0 0 0 0 0 0 0 0 0 0 0 0 0 0 0 0 0 0 0
0 0 0 0 0 0 0 0 0 0 0 0 0 0 0 0 0 0 0 0 0 0 0 0 0 0 0 0 0 0 0 0 0 0 0 0 0 0 0 0 0 0
12 0 0 0 0 0 0 0 0 0 0 0 0 0 0 0 0 0 0 0 0 0 0 0 0 0 0 0 0 0 0 0 0 0 0 0 0 0 0 0 0 0
271 110 0 0 0 0 0 0 0 0 0 0 0 0 0 0 0 0 0 0 0 0 0 0 0 0 0 0 0 0 0 0 0 0 0 0 0 0 1 8 10 9
351 222 0 0 0 0 0 0 0 0 0 0 0 0 0 0 0 0 0 0 0 0 0 0 0 0 0 0 0 0 0 0 0 0 0 0 0 3 7 12 16 15
418 242 0 0 0 0 0 0 0 0 0 0 0 0 0 0 0 0 0 0 0 0 0 0 0 0 0 0 0 0 0 0 0 0 0 0 0 3 12 14 14 13
511 225 3 0 0 0 0 0 0 0 0 0 0 0 0 0 0 0 0 0 0 0 0 0 0 0 0 0 0 0 0 0 0 0 0 0 0 4 11 15 16 17
519 27 1 2 0 0 0 0 0 0 0 0 0 0 0 0 0 0 0 0 0 0 0 0 0 0 0 0 0 0 0 0 0 0 0 0 0 0 0 1 5 8
389 202 22 0 0 0 0 0 0 0 0 0 0 0 0 0 0 0 0 0 0 0 0 0 0 0 0 0 0 0 0 0 0 0 0 0 0 0 0 0 0 0
380 229 26 0 0 0 0 0 0 0 0 0 0 0 0 0 0 0 0 0 0 0 0 0 0 0 0 0 0 0 0 0 0 0 0 0 0 0 0 0 0 0
346 0 0 0 6 2 0 0 0 0 0 0 0 0 0 0 0 0 0 0 0 0 0 0 0 0 0 0 0 0 0 0 0 0 0 0 0 0 0 0 0 0
437 122 55 0 5 1 0 0 0 0 0 0 0 0 0 0 0 0 0 0 0 0 0 0 0 0 0 0 0 0 0 0 0 0 0 0 0 0 0 0 0 0
332 82 56 3 0 0 0 0 0 0 0 0 0 0 0 0 0 0 0 0 0 0 0 0 0 0 0 0 0 0 0 0 0 0 0 0 0 0 0 0 0 0
112 87 35 4 0 0 0 0 0 0 0 0 0 0 0 0 0 0 0 0 0 0 0 0 0 0 0 0 0 0 0 0 0 0 0 0 0 0 0 0 0 0
78 58 4 0 0 0 0 0 0 0 0 0 0 0 0 0 0 0 0 0 0 0 0 0 0 0 0 0 0 0 0 0 0 0 0 0 0 0 0 0 0 0
12 0 0 0 0 0 0 0 0 0 0 0 0 0 0 0 0 0 0 0 0 0 0 0 0 0 0 0 0 0 0 0 0 0 0 0 0 0 0 0 0 0
2 9 1 0 0 0 0 0 0 0 0 0 0 0 0 0 0 0 0 0 0 0 0 0 0 0 0 0 0 0 0 0 0 0 0 0 0 0 0 0 0 0
16 24 0 0 0 0 0 0 0 0 0 0 0 0 0 0 0 0 0 0 0 0 0 0 0 0 0 0 0 0 0 0 0 0 0 0 0 0 0 0 0 0
0 0 0 0 0 0 0 0 0 0 0 0 0 0 0 0 0 0 0 0 0 0 0 0 0 0 0 0 0 0 0 0 0 0 0 0 0 0 1 1 2 2

ECMWFNIL_con_mucape_009.txt.gz
CAPE
0 0 0 0 0 0 0 0 0 0 0 0 0 0 0 0 0 0 0 0 0 0 0 0 0 0 0 0 0 0 0 0 0 0 0 0 0 0 0 0 0 0
0 0 0 0 0 0 0 0 0 0 0 0 0 0 0 0 0 0 0 0 0 0 0 0 0 0 0 0 0 0 0 0 0 0 0 0 0 0 0 0 0 0
0 0 0 0 0 0 0 0 0 0 0 0 0 0 0 0 0 0 0 0 0 0 0 0 0 0 0 0 0 0 0 0 0 0 0 0 0 0 0 0 0 0
0 0 0 0 0 0 0 0 0 0 0 0 0 0 0 0 0 0 0 0 0 0 0 0 0 0 0 0 0 0 0 0 0 0 0 0 0 0 0 0 0 0
23 0 0 0 0 0 0 0 0 0 0 0 0 0 0 0 0 0 0 0 0 0 0 0 0 0 0 0 0 0 0 0 0 0 0 0 0 0 0 0 0 0
142 107 6 0 0 0 0 0 0 0 0 0 0 0 0 0 0 0 0 0 0 0 0 0 0 0 0 0 0 0 0 0 0 0 0 0 0 0 0 0 0 0
187 164 113 0 0 0 0 0 0 0 0 0 0 0 0 0 0 0 0 0 0 0 0 0 0 0 0 0 0 0 0 0 0 0 0 0 0 0 0 0 0 0
222 197 155 84 0 0 0 0 0 0 0 0 0 0 0 0 0 0 0 0 0 0 0 0 0 0 0 0 0 0 0 0 0 0 0 0 0 0 0 0 0 0
255 253 200 141 0 0 0 0 0 0 0 0 0 0 0 0 0 0 0 0 0 0 0 0 0 0 0 0 0 0 0 0 0 0 0 0 0 0 0 0 0 0
296 294 261 213 145 0 0 0 0 0 0 0 0 0 0 0 0 0 0 0 0 0 0 0 0 0 0 0 0 0 0 0 0 0 0 0 0 0 0 0 0 0
350 338 318 287 238 148 63 0 0 0 0 0 0 0 0 0 0 0 0 0 0 0 0 0 0 0 0 0 0 0 0 0 0 0 0 0 0 0 0 0 0 0
382 364 374 369 308 241 137 0 0 0 0 0 0 0 0 0 0 0 0 0 0 0 0 0 0 0 0 0 0 0 0 0 0 0 0 0 0 0 0 0 0 2
435 435 405 410 414 347 247 31 0 0 0 0 0 0 0 0 0 0 0 0 0 0 0 0 0 0 0 0 0 0 0 0 0 0 0 0 0 0 0 0 0 1
510 501 464 317 367 413 332 0 0 0 0 0 0 0 0 0 0 0 0 0 0 0 0 0 0 0 0 0 0 0 0 0 0 0 0 0 0 0 0 0 0 0
558 562 482 403 329 408 362 0 0 0 0 0 0 0 0 0 0 0 0 0 0 0 0 0 0 0 0 0 0 0 0 0 0 0 0 0 0 0 0 0 0 0
623 650 625 390 74 391 331 0 0 0 0 0 0 0 0 0 0 0 0 0 0 0 0 0 0 0 0 0 0 0 0 0 0 0 0 0 0 0 0 0 0 0
751 741 693 452 12 410 289 1 0 0 0 0 0 0 0 0 0 0 0 0 0 0 0 0 0 0 0 0 0 0 0 0 0 0 0 0 0 0 0 0 0 0
793 783 724 564 250 2 0 12 4 0 0 0 0 0 0 0 0 0 0 0 0 0 0 0 0 0 0 0 0 0 0 0 0 0 0 0 0 0 0 0 0 0
753 766 757 546 8 66 4 78 5 0 0 0 0 0 0 0 0 0 0 0 0 0 0 0 0 0 0 0 0 0 0 0 0 0 0 0 0 0 0 0 0 0
715 711 696 612 412 60 38 7 34 2 0 0 0 0 0 0 0 0 0 0 0 0 0 0 0 0 0 0 0 0 0 0 0 0 0 0 0 0 0 0 0 0
721 733 648 408 342 170 128 60 35 3 0 0 0 0 0 0 0 0 0 0 0 0 0 0 0 0 0 0 0 0 0 0 0 0 0 0 0 0 0 0 0 0
693 756 712 398 9 56 24 62 51 0 0 0 0 0 0 0 0 0 0 0 0 0 0 0 0 0 0 0 0 0 0 0 0 0 0 0 0 0 0 0 0 0
595 629 652 609 235 209 54 40 4 0 16 1 0 0 0 0 0 0 0 0 0 0 0 0 0 0 0 0 0 0 0 0 0 0 0 0 0 0 0 0 0 0
493 538 590 328 116 144 38 2 0 0 0 0 0 0 0 0 0 0 0 0 0 0 0 0 0 0 0 0 0 0 0 0 0 0 0 0 0 0 0 0 0 0
451 460 371 47 38 123 38 24 0 0 0 0 0 0 0 0 0 0 0 0 0 0 0 0 0 0 0 0 0 0 0 0 0 0 0 0 0 0 0 0 0 0
450 328 285 225 123 52 18 3 0 0 0 0 0 0 0 0 0 0 0 0 0 0 0 0 0 0 0 0 0 0 0 0 0 0 0 0 0 0 0 0 2 2

ECMWFNIL_con_mucape_012.txt.gz
CAPE
0 0 0 0 0 0 0 0 0 0 0 0 0 0 0 0 0 0 0 0 0 0 0 0 0 0 0 0 0 0 0 0 0 0 0 0 0 0 0 0 0 0
0 0 0 0 0 0 0 0 0 0 0 0 0 0 0 0 0 0 0 0 0 0 0 0 0 0 0 0 0 0 0 0 0 0 0 0 0 0 0 0 0 0
0 0 0 0 0 0 0 0 0 0 0 0 0 0 0 0 0 0 0 0 0 0 0 0 0 0 0 0 0 0 0 0 0 0 0 0 0 0 0 0 0 0
0 0 0 0 0 0 0 0 0 0 0 0 0 0 0 0 0 0 0 0 0 0 0 0 0 0 0 0 0 0 0 0 0 0 0 0 0 0 0 0 0 0
0 0 0 0 0 0 0 0 0 0 0 0 0 0 0 0 0 0 0 0 0 0 0 0 0 0 0 0 0 0 0 0 0 0 0 0 0 0 0 0 0 0
0 0 0 0 0 0 0 0 0 0 0 0 0 0 0 0 0 0 0 0 0 0 0 0 0 0 0 0 0 0 0 0 0 0 0 0 0 0 0 0 0 0
0 0 0 0 0 0 0 0 0 0 0 0 0 0 0 0 0 0 0 0 0 0 0 0 0 0 0 0 0 0 0 0 0 0 0 0 0 0 0 0 0 0
0 0 0 0 0 0 0 0 0 0 0 0 0 0 0 0 0 0 0 0 0 0 0 0 0 0 0 0 0 0 0 0 0 0 0 0 0 0 0 0 0 0
30 5 0 0 0 0 0 0 0 0 0 0 0 0 0 0 0 0 0 0 0 0 0 0 0 0 0 0 0 0 0 0 0 0 0 0 0 0 0 0 0 0
104 61 34 9 0 0 0 0 0 0 0 0 0 0 0 0 0 0 0 0 0 0 0 0 0 0 0 0 0 0 0 0 0 0 0 0 0 0 0 0 0 0
212 153 24 11 11 0 0 0 0 0 0 0 0 0 0 0 0 0 0 0 0 0 0 0 0 0 0 0 0 0 0 0 0 0 0 0 0 0 0 0 0 0
401 307 130 29 0 0 0 0 0 0 0 0 0 0 0 0 0 0 0 0 0 0 0 0 0 0 0 0 0 0 0 0 0 0 0 0 0 0 0 0 0 0
530 513 403 282 84 21 0 0 0 86 0 0 0 0 0 0 0 0 0 0 0 0 0 0 0 0 0 0 0 0 0 0 0 0 0 0 0 0 0 0 0 0
586 600 573 517 422 198 71 78 32 0 70 0 0 0 0 0 0 0 0 0 0 0 0 0 0 0 0 0 0 0 0 0 0 0 0 0 0 0 0 0 0 0
646 670 666 625 570 501 439 271 117 26 27 252 96 0 0 0 0 0 0 0 0 0 0 0 0 0 0 0 0 0 0 0 0 0 0 0 0 0 0 0 0 0
558 610 642 660 658 617 558 483 356 234 40 88 168 0 0 0 0 0 0 0 0 0 0 0 0 0 0 0 0 0 0 0 0 0 0 0 0 0 0 0 0 0
395 518 594 626 640 663 652 619 386 195 68 11 11 0 0 0 0 0 0 0 0 0 0 0 0 0 0 0 0 0 0 0 0 0 0 0 0 0 0 0 0 0
0 355 492 586 638 650 619 523 474 100 19 52 64 48 23 19 1 0 0 0 0 0 0 0 0 0 0 0 0 0 0 0 0 0 0 0 0 0 0 0 0 0
0 156 369 480 557 593 598 536 495 61 5 96 104 86 66 42 38 19 2 0 0 0 0 0 0 0 0 0 0 0 0 0 0 0 0 0 0 0 0 0 0 0
0 0 269 399 488 548 565 559 494 383 22 92 75 62 56 70 43 31 14 0 0 0 0 0 0 0 0 0 0 0 0 0 0 0 0 0 0 0 0 0 0 0
0 0 0 297 386 461 541 606 549 380 187 0 51 61 37 56 86 50 2 0 0 0 0 0 0 0 0 0 0 0 0 0 0 0 0 0 0 0 0 0 0 0
0 0 0 0 320 378 458 532 497 333 0 65 52 62 24 37 38 33 2 0 0 0 0 0 0 0 0 0 0 0 0 0 0 0 0 0 0 0 0 0 0 0
0 0 23 175 259 336 378 458 411 252 147 115 120 29 32 34 0 2 0 0 0 0 9 2 0 0 0 0 0 0 0 0 0 0 0 0 0 0 0 0 0 0
0 0 68 130 204 270 357 438 380 77 22 5 78 75 43 26 2 3 0 0 0 0 0 6 0 0 0 0 0 0 0 0 0 0 0 0 0 0 0 0 0 0
0 0 20 105 181 260 342 425 264 10 16 76 30 5 7 18 0 0 0 0 0 0 0 0 0 0 0 0 0 0 0 0 0 0 0 0 0 0 0 0 0 0
0 0 0 0 156 244 316 358 159 22 42 29 25 44 3 0 0 0 0 0 0 0 0 0 0 0 0 0 0 0 0 0 0 0 0 0 0 0 0 0 0 0

ECMWFNIL_con_mucape_015.txt.gz
CAPE
49 44 49 17 15 7 12 3 0 9 14 8 4 5 0 0 0 0 0 0 0 0 0 0 0 0 0 0 0 0 0 0 0 0 0 0 0 0 0 0 0 0
29 32 16 16 7 0 0 8 0 3 13 23 9 10 4 0 0 0 0 0 0 0 0 0 0 0 0 0 0 0 0 0 0 0 0 0 0 0 0 0 0 0
22 15 17 13 8 3 1 0 0 1 7 25 41 15 1 0 0 0 0 0 0 0 0 0 0 0 0 0 0 0 0 0 0 0 0 0 0 0 0 0 0 0
3 5 9 12 8 1 0 0 0 0 0 1 0 5 3 0 0 0 0 0 0 0 0 0 0 0 0 0 0 0 0 0 0 0 0 0 0 0 0 0 0 0
66 37 7 7 1 0 0 0 0 0 0 0 1 0 0 0 0 0 0 0 0 0 0 0 0 0 0 0 0 0 0 0 0 0 0 0 0 0 0 0 0 0
31 2 7 0 0 0 0 0 0 0 0 0 0 0 1 0 0 0 0 0 0 0 0 0 0 0 0 0 0 0 0 0 0 0 0 0 0 0 0 0 0 0
2 1 0 0 0 0 0 0 0 0 0 0 0 0 0 0 0 0 0 0 0 0 0 0 0 0 0 0 0 0 0 0 0 0 0 0 0 0 0 0 0 0
23 25 42 0 2 12 0 0 0 0 0 0 0 0 0 0 0 0 0 0 0 0 0 0 0 0 0 0 0 0 0 0 0 0 0 0 0 0 0 0 0 0
37 36 38 39 9 18 7 0 0 0 0 0 0 0 0 0 0 0 0 0 0 0 0 0 0 0 0 0 0 0 0 0 0 0 0 0 0 0 0 0 0 0
201 47 53 55 53 54 23 7 7 0 0 0 0 0 0 0 0 0 0 0 0 0 0 0 0 0 0 0 0 0 0 0 0 0 0 0 0 0 0 0 0 0
325 289 175 225 201 90 31 33 7 0 0 0 0 0 0 0 0 0 0 0 0 0 0 0 0 0 0 0 0 0 0 0 0 0 0 0 0 0 0 0 0 0
425 425 343 326 298 248 166 39 20 12 0 0 0 0 0 0 0 0 0 0 0 0 0 0 0 0 0 0 0 0 0 0 0 0 0 0 0 0 0 0 0 0
387 470 498 481 396 370 321 254 189 14 29 26 13 0 0 0 0 0 0 0 0 0 0 0 0 0 0 0 0 0 0 0 0 0 0 0 0 0 0 0 0 0
423 460 453 488 540 506 436 387 349 299 223 66 71 53 29 5 28 62 4 0 0 0 0 0 0 0 0 0 0 0 0 0 0 0 0 0 0 0 0 0 0 0
280 329 384 426 525 542 580 578 559 523 476 413 338 126 94 7 0 10 2 0 0 0 0 0 0 0 0 0 0 0 0 0 0 0 0 0 0 0 0 0 0 0
38 198 276 232 331 432 496 530 543 551 564 541 490 462 345 50 29 35 15 6 0 0 0 0 0 0 0 0 0 0 0 0 0 0 0 0 0 0 0 0 0 0
0 32 168 228 199 136 318 395 431 466 507 531 533 562 484 355 188 27 46 34 26 8 20 26 0 0 0 0 0 0 0 0 0 0 0 0 0 0 0 0 0 0
0 0 24 132 170 114 52 261 335 400 435 453 488 497 388 156 285 216 67 19 4 23 54 42 5 0 0 0 0 0 0 0 0 0 0 0 0 0 0 0 0 0
0 0 3 27 52 59 18 0 246 302 345 383 432 468 427 370 322 236 58 3 0 39 74 78 23 1 0 0 0 0 0 0 0 0 0 0 0 0 0 0 0 0
0 0 0 9 15 7 0 0 0 52 263 320 377 414 409 345 264 233 110 0 0 11 47 79 58 24 12 0 0 0 0 0 0 0 0 0 0 0 0 0 0 0
0 0 0 0 0 1 1 0 0 0 0 273 325 351 383 342 192 0 10 12 0 8 31 39 34 14 6 0 0 0 0 0 0 0 0 0 0 0 0 0 0 0
0 0 0 0 0 0 0 0 0 0 0 0 369 397 356 333 241 50 68 59 33 26 25 14 9 12 3 0 0 0 0 0 0 0 0 0 0 0 0 0 0 0
0 0 0 0 0 0 0 0 0 0 0 0 173 338 379 332 244 124 28 31 21 4 0 0 0 0 0 0 0 0 0 0 0 0 0 0 0 0 0 0 0 0
0 0 0 0 1 1 0 0 0 0 0 0 0 0 0 74 230 26 48 70 47 34 0 0 0 0 0 0 0 0 0 0 0 0 0 0 0 0 0 0 0 0
0 0 0 0 1 2 2 0 0 24 104 122 179 89 211 164 48 0 53 63 8 12 0 0 0 1 1 0 0 0 0 0 0 0 0 0 0 0 0 0 0 0
0 0 0 0 1 2 3 0 2 24 135 181 232 250 266 150 91 16 10 0 0 0 0 0 0 0 0 0 0 0 0 0 0 0 0 0 0 0 0 0 0 0

ECMWFNIL_con_mucape_021.txt.gz
CAPE
334 245 186 73 50 58 118 56 96 86 19 19 21 38 11 0 0 0 0 0 0 0 0 0 0 0 0 0 0 0 0 0 0 0 0 0 0 0 0 0 0 0
588 429 316 152 40 35 162 86 151 175 33 21 51 79 89 27 0 0 0 0 0 0 0 0 0 0 0 0 0 0 0 0 0 0 0 0 0 0 0 0 0 0
622 653 661 460 180 85 281 193 183 213 79 35 78 109 162 149 0 0 1 1 0 0 0 0 0 0 0 0 0 0 0 0 0 0 0 0 0 0 0 0 0 0
782 796 775 693 484 282 279 358 228 158 124 76 67 108 196 268 15 9 21 0 0 0 0 0 0 0 0 0 0 0 0 0 0 0 0 0 0 0 0 0 0 0
948 936 884 775 679 589 648 588 363 182 116 175 135 143 210 402 124 76 49 8 29 10 1 0 0 0 0 0 0 0 0 0 0 0 0 0 0 0 0 0 0 0
1176 1017 786 723 720 618 667 722 557 292 154 180 233 188 255 493 185 142 94 52 25 32 14 0 0 0 0 0 0 0 0 0 0 0 0 0 0 0 0 0 0 0
974 1128 1006 721 664 633 705 589 646 438 198 152 269 345 290 530 257 167 122 113 62 42 36 10 0 0 0 0 0 0 0 0 0 0 0 0 0 0 0 0 0 0
663 603 1013 1020 908 780 867 863 525 554 545 382 194 399 300 463 320 236 170 149 88 86 76 23 0 0 0 0 0 0 0 0 0 0 0 0 0 0 0 0 0 0
719 494 511 756 810 889 899 929 677 626 468 344 535 96 304 376 300 281 245 222 171 148 116 73 23 1 0 0 0 0 0 0 0 0 0 0 0 0 0 0 0 0
853 848 673 644 558 579 360 120 759 852 422 475 591 327 47 87 35 8 292 317 266 218 186 129 69 17 1 0 0 0 0 0 0 0 0 0 0 0 0 0 0 0
958 960 925 1063 1087 1065 1207 904 555 607 798 292 698 619 464 687 577 129 363 371 376 300 256 200 125 53 15 0 0 0 0 0 0 0 0 0 0 0 0 0 0 0
1006 1064 1133 1253 1200 1429 1008 583 681 777 622 85 52 609 25 346 440 472 334 395 433 383 339 270 204 115 48 8 0 0 0 1 4 0 0 0 0 0 0 0 0 0
905 988 1006 992 952 1081 1083 1011 982 1061 983 594 546 545 514 234 122 411 319 426 495 496 411 342 241 136 96 43 1 0 0 16 21 13 0 0 0 0 0 0 0 0
0 5 120 460 742 1025 1026 1066 1044 1043 1029 974 750 759 543 530 419 127 106 98 504 554 463 373 178 155 64 54 146 118 99 29 20 19 2 0 0 0 0 0 0 0
0 0 0 1 21 181 442 724 1011 1040 936 781 736 912 684 736 571 353 666 657 703 657 528 304 47 71 105 119 190 171 155 138 48 8 4 0 0 0 0 0 0 0
0 0 0 0 4 5 21 116 351 410 485 962 968 863 876 745 600 757 417 594 775 422 123 84 68 63 76 18 169 177 176 56 74 65 0 0 0 0 0 0 0 0
0 0 0 0 0 5 5 12 36 110 377 600 642 750 883 858 642 570 781 555 696 420 188 184 172 105 114 88 210 267 268 65 63 42 30 15 0 0 0 0 0 0
0 0 0 0 0 0 15 35 34 37 85 282 493 546 600 721 844 748 705 744 801 314 305 106 98 154 150 139 194 316 379 207 89 81 90 49 1 0 0 0 0 0
0 0 0 0 0 0 0 10 26 77 79 84 240 466 523 522 566 690 698 678 619 428 340 270 49 12 99 145 399 207 101 94 110 57 38 65 5 0 0 0 0 0
0 0 0 0 0 0 0 0 0 9 53 157 250 310 463 536 507 516 648 650 604 509 331 179 80 0 164 281 326 333 285 217 101 1 0 0 0 0 0 0 0 0
0 0 0 0 0 0 0 0 0 0 4 32 66 209 346 412 510 519 536 620 538 498 272 186 4 0 0 10 86 102 152 8 6 0 0 0 0 0 0 0 0 0
0 0 0 0 0 0 0 0 0 1 28 69 47 66 131 252 291 330 496 606 545 437 462 0 13 0 8 3 4 57 10 17 0 0 0 0 0 0 0 0 0 0
0 0 0 0 0 0 0 0 0 0 6 99 87 73 137 182 253 251 342 433 419 362 165 0 0 0 1 28 58 18 6 12 2 2 3 2 0 0 0 0 0 0
0 0 0 0 0 0 0 0 0 0 0 28 131 138 138 188 202 178 207 298 322 378 0 0 0 0 5 31 14 7 7 2 1 0 3 0 1 0 0 0 0 0
0 0 0 0 0 0 0 0 0 2 9 18 92 162 167 151 102 166 279 268 271 53 0 0 0 17 62 37 11 17 5 6 0 1 9 3 1 2 1 0 0 0
0 0 0 0 0 0 0 0 0 2 13 77 131 89 71 102 78 112 196 0 0 0 0 0 6 33 42 57 36 14 1 0 3 3 2 4 2 1 1 0 0 0

ECMWFNIL_con_mucape_024.txt.gz
CAPE
729 566 577 497 782 550 475 598 368 465 373 539 386 237 110 90 0 10 56 4 0 0 0 0 0 0 0 0 0 0 0 0 0 0 0 0 0 0 0 0 0 0
724 703 378 485 478 629 621 778 681 514 432 586 536 445 219 96 6 33 104 48 0 0 0 0 0 0 0 0 0 0 0 0 0 0 0 0 0 0 0 0 0 0
839 873 537 542 403 805 676 589 970 662 437 424 808 608 436 205 28 79 174 63 4 4 0 0 0 0 0 0 0 0 0 0 0 0 0 0 0 0 0 0 0 0
1097 1120 1050 866 537 941 938 554 823 995 683 385 761 760 580 266 74 130 195 127 41 46 9 2 0 0 0 0 0 0 0 0 0 0 0 0 0 0 0 0 0 0
1218 1290 1430 1366 1138 1050 1032 771 743 729 748 568 574 665 608 418 167 115 236 149 138 64 34 14 3 1 0 0 0 1 0 0 0 0 0 0 0 0 0 0 0 0
1235 1202 1193 1275 1067 791 1136 1088 872 763 919 689 818 580 848 580 209 165 204 169 116 157 77 19 5 4 0 0 0 2 0 0 0 0 0 0 0 0 0 0 0 0
1518 1536 1401 1250 835 779 525 934 822 947 827 921 599 312 449 797 526 315 197 178 103 166 95 32 4 7 0 0 0 1 0 0 0 0 0 0 0 0 0 0 0 0
1436 1300 1464 1225 1389 1241 780 730 458 798 961 703 1269 582 202 492 552 494 354 244 123 112 138 75 32 0 0 0 0 0 0 0 0 0 0 0 0 0 0 0 0 0
1103 1473 1044 809 759 847 1224 839 586 538 845 1098 891 678 703 440 348 383 385 312 235 188 132 129 72 4 1 0 0 1 0 0 0 0 0 0 0 0 0 0 0 0
1225 874 1176 743 661 682 799 483 438 516 681 924 950 850 671 665 713 505 290 233 273 254 181 187 128 52 21 0 0 0 0 0 0 0 0 0 0 0 0 0 0 0
1230 1310 1299 1231 952 682 976 928 619 494 403 775 989 1002 823 720 876 743 684 401 339 304 201 202 185 109 47 19 1 0 0 0 0 0 0 0 0 0 0 0 0 0
1328 1240 1314 1350 1478 1472 1364 1058 923 790 621 606 699 648 602 1025 437 437 521 531 349 308 211 197 171 133 117 69 11 0 1 0 0 0 0 0 0 0 0 0 0 0
1057 914 1041 1061 1333 1424 1618 1035 714 483 488 580 626 376 268 523 40 281 252 411 436 299 299 114 74 69 178 160 141 93 0 0 0 0 0 0 0 0 0 0 0 0
417 597 847 991 1176 1262 1284 1378 1253 1048 819 865 821 468 358 589 478 374 365 349 478 456 67 170 137 134 124 133 131 180 209 168 0 0 0 0 0 0 0 0 0 0
20 9 8 12 280 1066 1461 1446 1366 1244 1194 1241 952 761 886 984 815 519 353 294 238 90 212 668 356 191 18 82 105 206 122 216 166 29 0 3 0 0 0 0 0 0
0 4 40 19 19 36 59 215 592 1179 1258 1344 1381 1172 918 779 628 519 366 371 433 432 425 303 494 317 39 15 54 95 63 215 188 60 3 58 22 0 0 140 146 48
0 0 0 0 5 14 20 22 15 165 715 1220 1237 906 724 622 677 643 648 579 423 325 385 404 361 411 239 19 48 50 128 182 192 40 78 44 16 7 127 172 174 164
0 0 0 0 0 0 2 8 48 63 57 98 265 744 986 973 1015 1006 881 878 713 721 606 496 467 429 351 186 79 138 130 221 184 53 55 13 33 104 117 97 3 9
0 0 0 0 0 0 1 1 0 4 16 104 154 294 502 626 694 789 808 911 943 850 887 763 618 510 410 284 224 244 216 184 171 0 73 44 42 36 6 0 0 1
0 0 0 0 1 2 0 1 1 2 25 51 95 179 296 466 629 645 722 735 806 780 785 696 579 511 404 368 371 305 255 198 57 0 14 20 16 0 0 0 0 1
0 0 0 0 0 0 1 1 6 17 25 31 31 73 141 228 294 350 503 540 587 753 652 404 405 450 454 431 383 330 251 116 0 3 4 3 2 0 0 0 2 3
0 0 0 0 0 0 0 0 4 15 21 28 38 80 82 77 114 246 381 520 623 620 623 450 341 352 367 358 363 315 224 0 2 12 9 4 4 3 1 1 4 6
0 0 0 0 0 0 0 0 1 23 32 20 14 63 124 141 113 168 198 260 371 472 396 295 306 324 347 350 315 271 0 0 12 26 17 8 2 2 2 0 0 4
0 0 0 0 0 0 0 0 0 0 0 0 1 5 41 105 133 136 168 200 252 262 288 266 310 332 320 284 257 30 0 0 14 53 36 8 2 2 3 3 4 2
0 0 0 0 0 0 0 0 0 0 0 3 10 13 15 66 70 24 148 14 0 0 121 117 214 263 287 272 216 195 161 100 81 62 35 20 9 7 0 3 2 3
0 0 4 2 1 5 28 27 25 5 4 4 12 6 13 40 57 28 24 0 0 0 0 0 0 72 205 180 164 140 108 68 41 37 13 7 2 2 0 1 8 10

ECMWFNIL_con_mucape_027.txt.gz
CAPE
0 9 7 0 0 0 0 0 0 0 0 0 0 0 0 0 0 0 0 0 0 0 0 0 0 0 0 0 0 0 0 0 0 0 0 0 0 0 0 0 0 0
15 56 57 12 12 4 3 0 2 0 0 0 0 0 0 0 0 0 0 0 0 0 0 0 0 0 0 0 0 0 0 0 0 0 0 0 0 0 0 0 0 0
30 212 131 45 38 9 88 36 4 0 17 0 0 0 0 0 0 0 0 0 0 0 0 0 0 0 0 0 0 0 0 0 0 0 0 0 0 0 0 0 0 0
27 9 6 183 61 13 202 229 90 8 248 32 0 0 0 0 0 0 0 19 0 0 0 0 0 0 0 0 0 0 0 0 0 0 0 0 0 0 0 0 0 0
26 37 24 0 282 49 14 292 188 148 148 213 64 2 0 0 0 0 0 0 0 0 0 0 0 0 0 0 0 0 0 0 0 0 0 0 0 0 0 0 0 0
536 22 161 26 340 279 22 324 240 197 180 309 203 156 129 0 0 0 0 0 0 0 0 0 0 0 0 0 0 0 0 0 0 0 0 0 0 0 0 0 0 0
803 810 534 408 505 413 389 408 424 389 234 181 342 241 257 244 245 228 208 79 0 1 0 0 0 0 0 0 0 0 0 0 0 0 0 0 0 0 0 0 0 0
869 821 681 570 444 418 469 406 406 534 470 359 276 359 319 321 312 295 249 222 204 179 123 0 0 0 0 0 0 0 0 0 0 0 0 0 0 0 0 0 0 0
904 756 725 683 642 463 521 478 428 398 486 574 331 156 363 387 361 326 290 258 230 211 186 148 13 0 0 0 0 0 0 0 0 0 0 0 0 0 0 0 0 0
872 854 734 700 706 645 169 475 499 481 461 543 502 459 358 371 438 401 342 296 248 247 224 193 31 0 0 0 0 0 0 0 0 0 0 0 0 0 0 0 0 0
613 636 617 743 806 714 563 340 322 387 471 495 486 616 504 411 404 411 366 46 26 30 208 221 176 176 108 110 177 193 111 72 0 0 0 0 0 0 0 0 0 0
678 644 717 676 624 671 502 428 366 294 323 432 503 522 632 563 418 399 462 452 372 314 88 59 197 215 238 241 231 224 213 199 191 184 118 0 0 0 0 0 0 0
820 922 1066 950 742 782 704 480 385 380 329 387 416 503 580 596 548 479 404 279 343 372 391 243 183 259 233 229 244 222 190 169 63 170 162 143 0 0 2 0 0 0
776 839 907 1030 1064 1018 890 673 511 400 357 356 374 398 488 513 583 544 290 88 118 80 42 114 228 296 298 271 236 124 137 131 148 163 156 116 0 0 0 0 0 0
115 324 451 650 754 1106 1102 856 735 658 600 527 455 379 318 357 358 310 246 295 213 172 91 38 134 66 85 290 288 244 212 198 195 188 179 77 4 0 0 0 0 0
0 0 0 0 333 522 792 1065 1067 1026 976 969 944 848 771 733 664 597 554 522 511 518 434 353 338 346 319 286 267 262 259 243 253 210 171 135 0 0 0 0 132 5
0 0 0 0 0 0 7 666 863 890 999 1102 1038 979 958 899 835 781 733 718 675 628 564 494 441 346 418 405 389 370 345 292 266 222 184 135 91 0 0 0 136 78
0 0 0 0 0 0 0 0 0 21 296 769 891 1031 1110 1066 975 870 815 764 727 656 672 686 651 569 464 459 437 412 376 316 253 250 194 0 0 0 131 143 151 136
0 0 0 0 0 0 0 0 0 0 0 0 1 34 465 778 699 673 677 658 714 749 750 705 666 652 621 595 597 582 560 531 424 265 204 0 0 34 106 138 123 92
0 0 0 0 0 0 0 0 0 0 0 0 0 0 0 0 4 148 407 636 754 792 756 709 710 721 765 776 737 676 590 506 451 357 218 115 106 89 0 97 93 67
0 0 0 0 0 0 0 0 0 0 0 0 0 0 3 12 17 10 8 65 134 340 558 683 723 773 836 818 737 611 497 445 432 303 181 110 0 0 0 0 34 9
0 0 0 0 0 0 0 0 0 0 0 0 0 0 0 0 0 0 2 40 132 174 198 278 378 633 762 733 602 482 410 410 325 248 173 109 0 0 0 5 3 0
0 0 0 0 0 0 0 0 0 0 0 0 0 0 0 0 0 0 0 0 0 47 267 372 434 467 511 510 450 417 389 348 302 310 226 0 0 0 0 1 0 2
0 0 0 0 0 0 0 0 0 0 0 0 0 0 0 0 0 0 0 0 1 0 180 295 391 446 460 452 420 397 372 337 303 257 184 0 0 0 0 0 0 0
0 0 0 0 0 0 0 0 0 0 0 0 0 0 0 0 0 0 0 0 0 0 241 312 382 397 372 362 367 366 371 280 227 0 9 0 0 0 9 4 2 8
0 0 0 0 0 0 0 0 0 0 0 0 0 0 0 0 0 0 0 0 0 0 9 232 256 255 230 235 261 284 310 139 0 5 101 38 2 3 9 16 14 2

ECMWFNIL_con_mucape_030.txt.gz
CAPE
0 0 0 0 0 0 0 0 0 0 0 0 0 0 0 0 0 0 0 0 0 0 0 0 0 0 0 0 0 0 0 0 0 0 0 0 0 0 0 0 0 0
0 0 0 0 0 0 0 0 0 0 0 0 0 0 0 0 0 0 0 0 0 0 0 0 0 0 0 0 0 0 0 0 0 0 0 0 0 0 0 0 0 0
1 0 0 0 0 0 0 0 0 0 0 0 0 0 0 0 0 0 0 0 0 0 0 0 0 0 0 0 0 0 0 0 0 0 0 0 0 0 0 0 0 0
3 0 0 0 0 0 0 0 0 0 65 73 0 0 0 0 0 0 0 0 0 0 0 0 0 0 0 0 0 0 0 0 0 0 0 0 0 0 0 0 0 0
6 0 0 0 0 0 0 0 0 142 129 152 116 111 0 0 0 0 0 0 0 0 0 0 0 0 0 0 0 0 0 0 0 0 0 0 0 0 0 0 0 0
7 7 0 0 0 1 4 173 0 208 218 234 174 172 157 0 0 0 0 0 0 0 0 0 0 0 0 0 0 0 0 0 0 0 0 0 0 0 0 0 0 0
67 35 23 1 17 16 12 14 111 229 303 285 226 220 133 113 11 15 7 2 0 0 0 0 0 0 0 0 0 0 0 0 0 0 0 0 0 0 0 0 0 0
108 94 19 13 25 31 25 4 0 13 346 58 72 107 86 69 46 35 27 16 6 11 4 0 0 0 0 0 0 0 0 0 0 0 0 0 0 0 0 0 0 0
137 43 22 20 29 49 17 5 3 1 3 10 64 117 116 98 59 25 16 1 2 0 1 4 0 0 0 0 0 0 0 0 0 0 0 0 0 0 0 0 0 0
81 34 8 21 16 6 0 76 0 5 18 6 19 59 44 58 39 20 214 11 0 142 139 12 6 6 1 0 0 0 0 0 0 0 0 0 0 0 0 0 0 0
512 245 26 94 108 2 1 2 3 4 242 287 268 345 326 325 338 295 240 21 0 0 167 174 54 15 14 12 1 0 0 0 0 0 0 0 0 0 0 0 0 0
573 220 175 267 76 226 324 0 0 45 33 465 413 533 418 407 410 375 333 279 258 238 213 207 217 214 46 15 17 2 116 205 133 0 0 0 0 0 0 0 0 0
620 133 232 387 430 431 336 272 256 134 143 1 342 438 587 531 456 421 436 414 392 343 290 261 278 276 253 247 249 243 231 230 238 191 0 0 0 0 0 0 0 0
332 506 482 521 546 570 524 526 409 367 0 249 356 401 479 549 560 542 510 450 452 411 354 326 345 346 358 347 333 318 329 315 289 262 214 51 36 0 0 0 0 0
608 833 709 645 464 559 676 605 479 398 283 302 326 290 275 368 437 480 516 528 525 495 433 325 235 287 310 323 360 376 348 327 309 274 268 254 227 188 183 121 0 1
523 571 713 789 854 890 866 881 842 740 638 578 516 474 496 502 566 578 525 458 359 326 174 160 286 374 312 302 119 114 113 286 290 293 302 304 296 259 235 216 186 148
220 160 286 479 582 764 822 926 913 829 815 793 832 893 898 872 829 810 790 754 700 631 617 627 633 622 587 543 494 458 424 390 355 337 320 317 314 305 288 272 249 211
0 0 0 0 0 89 322 507 717 832 896 970 960 997 986 920 888 855 838 830 813 771 716 670 673 690 660 650 644 618 556 480 404 348 330 302 350 356 364 317 290 238
0 0 0 0 0 0 0 0 0 0 0 4 54 93 167 301 460 590 647 637 638 688 699 667 672 698 685 674 660 635 605 577 523 531 534 530 492 455 365 334 323 245
0 0 0 0 0 0 0 0 0 0 0 0 0 0 0 3 34 66 118 172 252 379 536 605 631 662 679 655 630 640 671 665 646 617 582 569 549 471 357 253 210 179
0 0 0 0 0 0 0 0 0 0 0 0 0 0 0 0 0 0 0 0 0 52 236 418 518 515 519 573 639 672 696 667 608 532 476 466 480 424 389 255 257 135
0 0 0 0 0 0 0 0 0 0 0 0 0 0 0 0 0 0 0 0 0 0 13 38 175 265 384 488 562 656 714 660 525 406 350 305 290 284 255 228 173 116
0 0 0 0 0 0 0 0 0 0 0 0 0 0 0 0 0 0 0 0 0 0 0 0 0 96 220 307 443 587 599 474 376 323 277 219 182 155 157 132 95 56
0 0 0 0 0 0 0 0 0 0 0 0 0 0 0 0 0 0 0 0 0 0 0 0 0 0 201 336 475 486 430 376 307 265 233 210 177 128 72 0 9 7
0 0 0 0 0 0 0 0 0 0 0 0 0 0 0 0 0 0 0 0 0 0 0 0 0 0 148 358 461 443 357 280 228 207 218 212 178 150 0 0 0 0
0 0 0 0 0 0 0 0 0 0 0 0 0 0 0 0 0 0 0 0 0 0 0 0 0 169 273 400 432 354 257 204 7 0 118 162 0 0 0 32 2 2

ECMWFNIL_con_mucape_033.txt.gz
CAPE
0 0 0 0 0 0 0 0 0 0 0 0 0 0 0 0 0 0 0 0 0 0 0 0 0 0 0 0 0 0 0 0 0 0 0 0 0 0 0 0 0 0
0 0 0 0 0 0 0 0 0 0 0 0 0 0 0 0 0 0 0 0 0 0 0 0 0 0 0 0 0 0 0 0 0 0 0 0 0 0 0 0 0 0
0 0 0 0 0 0 0 0 0 0 0 0 0 0 0 0 0 0 0 0 0 0 0 0 0 0 0 0 0 0 0 0 0 0 0 0 0 0 0 0 0 0
0 0 0 0 0 0 0 0 0 0 0 0 0 0 0 0 0 0 0 0 0 0 0 0 0 0 0 0 0 0 0 0 0 0 0 0 0 0 0 0 0 0
0 0 0 0 0 0 0 0 0 0 0 0 0 0 0 0 0 0 0 0 0 0 0 0 0 0 0 0 0 0 0 0 0 0 0 0 0 0 0 0 0 0
5 0 0 0 0 0 0 0 0 0 0 0 0 0 0 0 0 0 0 0 0 0 0 0 0 0 0 0 0 0 0 0 0 0 0 0 0 0 0 0 0 0
20 0 0 0 0 0 0 0 0 0 0 0 0 0 0 0 0 0 0 0 0 0 0 0 0 0 0 0 0 0 0 0 0 0 0 0 0 0 0 0 0 0
49 0 0 0 0 0 0 0 0 0 0 0 0 0 0 0 0 0 0 0 0 0 0 0 0 0 0 0 0 0 0 0 0 0 0 0 0 0 0 0 0 0
177 131 19 0 0 0 3 1 0 0 0 0 0 0 0 0 0 0 0 0 4 0 0 0 0 0 0 0 0 0 0 0 0 0 0 0 0 0 0 0 0 0
214 172 101 11 0 0 0 0 0 0 0 0 0 0 0 0 0 0 0 0 0 0 0 0 0 0 0 0 0 0 0 0 0 0 0 0 0 0 0 0 0 0
278 214 106 50 1 8 0 0 0 1 0 0 0 0 0 0 1 2 0 0 0 0 2 0 0 0 0 0 0 0 2 1 0 0 0 0 0 0 0 0 0 0
355 247 74 64 51 36 10 23 11 0 0 49 13 2 15 4 0 2 1 10 0 0 0 1 0 0 0 0 0 0 3 12 10 3 0 0 0 0 0 0 0 0
515 468 188 75 28 18 7 15 6 43 34 92 323 188 0 15 0 0 0 11 35 4 0 60 0 0 0 124 0 0 0 1 6 12 22 164 9 0 0 0 0 0
560 53 206 248 0 0 5 18 24 18 53 348 417 411 401 253 0 0 0 0 0 7 23 162 312 332 315 319 312 303 285 271 270 254 92 272 256 232 208 170 137 117
476 38 283 318 228 248 8 192 363 155 155 0 328 378 83 7 82 37 6 0 63 201 419 384 465 437 371 292 255 271 275 298 337 350 318 310 282 217 175 204 205 196
318 291 312 313 265 292 320 78 4 66 361 175 0 13 201 202 0 15 32 20 162 209 383 504 478 459 430 393 357 275 289 294 265 274 253 109 194 254 199 207 196 227
393 504 544 536 480 434 327 85 231 504 432 288 194 194 8 3 56 44 5 5 172 490 563 614 618 615 642 634 608 579 534 504 479 459 432 399 371 332 316 325 328 287
734 637 751 839 712 520 462 568 599 568 570 536 517 510 523 567 600 635 671 686 628 643 651 692 703 681 648 654 641 629 590 535 524 524 519 481 431 395 374 366 368 370
379 270 298 420 133 0 0 0 202 398 474 428 405 246 164 184 134 257 216 188 199 233 306 362 433 486 503 521 543 546 527 508 522 556 563 558 537 533 520 502 471 420
0 0 0 0 0 0 0 0 0 0 0 0 0 0 0 0 0 0 0 0 0 0 0 21 131 186 289 373 418 446 482 497 527 567 594 564 537 525 512 536 555 539
0 0 0 0 0 0 0 0 0 0 0 0 0 0 0 0 0 0 0 0 0 0 0 0 0 0 83 169 273 364 419 510 587 614 603 573 530 486 443 431 458 451
0 0 0 0 0 0 0 0 0 0 0 0 0 0 0 0 0 0 0 0 0 0 0 0 0 0 0 0 104 221 355 486 592 622 584 512 445 373 311 282 308 314
0 0 0 0 0 0 0 0 0 0 0 0 0 0 0 0 0 0 0 0 0 0 0 0 0 0 0 0 0 143 298 461 532 523 427 282 208 171 152 150 170 194
0 0 0 0 0 0 0 0 0 0 0 0 0 0 0 0 0 0 0 0 0 0 0 0 0 0 0 0 0 134 278 411 439 345 235 144 20 18 19 18 19 20
0 0 0 0 0 0 0 0 0 0 0 0 0 0 0 0 0 0 0 0 0 0 0 0 0 0 0 0 0 165 283 364 359 264 155 26 0 0 0 0 0 0
0 0 0 0 0 0 0 0 0 0 0 0 0 0 0 0 0 0 0 0 0 0 0 0 0 0 0 0 156 257 308 294 218 138 0 0 0 0 0 0 0 1

ECMWFNIL_con_mucape_036.txt.gz
CAPE
0 0 0 0 0 0 0 0 0 0 0 0 0 0 0 0 0 0 0 0 0 0 0 0 0 0 0 0 0 0 0 0 0 0 0 0 0 0 0 0 0 0
0 0 0 0 0 0 0 0 0 0 0 0 0 0 0 0 0 0 0 0 0 0 0 0 0 0 0 0 0 0 0 0 0 0 0 0 0 0 0 0 0 0
0 0 0 0 0 0 0 0 0 0 0 0 0 0 0 0 0 0 0 0 0 0 0 0 0 0 0 0 0 0 0 0 0 0 0 0 0 0 0 0 0 0
0 0 0 0 0 0 0 0 0 0 0 0 0 0 0 0 0 0 0 0 0 0 0 0 0 0 0 0 0 0 0 0 0 0 0 0 0 0 0 0 0 0
9 0 0 0 0 0 0 0 0 0 0 0 0 0 0 0 0 0 0 0 0 0 0 0 0 0 0 0 0 0 0 0 0 0 0 0 0 0 0 0 0 0
160 40 35 5 0 0 0 0 0 0 0 0 0 0 0 0 0 0 0 0 0 0 0 0 0 0 0 0 0 0 0 0 0 0 0 0 0 0 0 0 0 0
314 1 27 34 2 0 0 0 0 0 0 0 0 0 0 0 0 0 0 0 0 0 0 0 0 0 0 0 0 0 0 0 0 0 0 0 0 0 0 0 0 0
65 67 58 73 12 0 0 0 0 0 0 0 0 0 0 0 0 0 0 0 0 0 0 0 0 0 0 0 0 0 0 0 0 0 0 0 0 0 0 0 0 0
270 250 65 40 5 0 0 0 0 0 0 0 0 0 0 0 0 0 0 0 0 0 0 0 0 0 0 0 0 0 0 0 0 0 0 0 0 0 0 0 0 0
602 438 166 21 0 0 0 0 0 0 0 0 0 0 0 0 0 0 0 0 0 0 0 0 0 0 0 0 1 4 2 0 0 0 0 0 0 0 0 0 0 0
876 634 235 0 0 0 0 0 0 0 0 0 0 0 0 0 186 84 0 0 0 0 0 0 0 0 0 0 0 0 1 2 1 0 0 0 0 0 0 0 0 0
946 662 292 56 64 0 0 1 0 0 0 0 0 0 227 0 0 0 0 0 0 0 0 0 128 52 0 0 0 0 2 0 2 2 0 0 0 0 0 0 0 0
910 560 392 83 54 54 37 24 0 0 0 0 0 2 8 4 0 0 0 0 8 18 55 1 3 0 1 1 0 4 21 17 31 186 118 101 86 10 0 0 40 0
844 566 492 342 187 162 80 50 16 0 5 0 0 0 0 0 0 0 0 0 62 3 5 11 6 0 0 0 0 0 52 106 216 156 240 39 126 163 169 161 164 131
854 615 437 292 90 156 148 63 13 118 0 258 127 0 29 160 220 0 0 0 0 0 0 11 17 0 0 0 250 271 276 200 29 0 0 0 232 251 222 31 182 134
689 574 476 352 292 320 191 250 218 118 315 319 151 262 182 0 0 1 1 9 2 0 0 11 17 5 44 179 322 270 200 206 226 260 122 108 250 231 212 143 0 0
744 704 515 344 352 385 398 385 325 329 335 333 340 185 0 1 3 20 3 0 0 2 1 0 1 213 262 282 300 367 422 454 484 504 459 419 380 352 323 298 269 225
594 498 364 302 318 376 383 368 390 372 364 137 289 312 175 138 0 1 5 1 22 127 121 196 448 544 580 534 517 530 516 523 524 488 447 458 445 427 368 346 293 278
594 564 644 701 688 628 564 440 485 378 337 428 404 459 445 388 341 320 259 258 267 242 214 224 239 255 248 276 340 381 424 451 429 402 411 442 471 464 435 438 464 430
572 535 535 762 776 655 529 462 491 544 548 557 480 214 106 77 56 0 0 0 0 0 0 0 0 0 0 0 0 77 225 291 366 418 438 477 474 456 426 412 405 394
0 0 0 0 0 0 146 264 359 396 345 154 0 0 0 0 0 0 0 0 0 0 0 0 0 0 0 0 0 0 22 180 276 389 507 560 552 511 467 423 378 335
0 0 0 0 0 0 0 0 33 0 0 0 0 0 0 0 0 0 0 0 0 0 0 0 0 0 0 0 0 0 0 130 252 382 520 589 573 520 439 364 272 204
0 0 0 0 0 0 0 0 0 0 0 0 0 0 0 0 0 0 0 0 0 0 0 0 0 0 0 0 0 0 0 103 247 392 495 522 479 309 159 95 49 0
0 0 0 0 0 0 0 0 0 0 0 0 0 0 0 0 0 0 0 0 0 0 0 0 0 0 0 0 0 0 0 151 272 354 408 354 224 104 0 0 0 0
0 0 0 0 0 0 0 0 0 0 0 0 0 0 0 0 0 0 0 0 0 0 0 0 0 0 0 0 0 98 159 223 270 307 294 210 49 0 0 0 0 0
0 0 0 0 0 0 0 0 0 0 0 0 0 0 0 0 0 0 0 0 0 0 0 0 0 0 0 0 0 5 152 188 204 163 40 0 0 0 0 0 0 0

ECMWFNIL_con_mucape_039.txt.gz
CAPE
188 173 178 205 263 228 108 36 23 1 0 0 0 0 0 0 0 0 0 0 0 0 0 0 0 0 0 0 0 0 0 0 0 0 0 0 0 0 0 0 0 0
172 125 80 95 31 39 99 92 27 4 9 4 0 0 0 0 0 0 0 0 0 0 0 0 0 0 0 0 0 0 0 0 0 0 0 0 0 0 0 0 0 0
245 190 185 226 224 215 154 54 16 18 12 4 0 0 0 0 0 0 0 0 0 0 0 0 0 0 0 0 0 0 0 0 0 0 0 0 0 0 0 0 0 0
326 260 281 401 361 296 210 53 2 0 0 1 0 0 0 0 0 0 4 0 2 0 0 0 0 0 0 0 0 0 0 0 0 0 0 0 0 0 0 0 0 0
264 137 286 303 326 474 272 210 49 1 0 19 15 0 1 0 0 0 0 0 2 0 0 0 0 0 0 0 0 0 0 0 0 0 0 0 0 0 0 0 0 0
42 12 57 232 326 425 298 180 96 1 10 18 60 3 32 66 0 0 0 0 0 0 0 0 0 0 0 0 0 0 0 0 0 0 0 0 0 0 0 0 0 0
122 79 24 21 101 350 387 93 200 20 20 109 27 63 28 57 30 0 0 0 0 0 0 0 0 0 0 0 0 0 0 0 0 0 0 0 0 0 0 0 0 0
340 426 432 170 292 317 422 315 322 202 81 11 50 15 14 58 50 38 0 0 0 0 0 0 0 0 0 0 0 0 0 0 0 0 0 0 0 0 0 0 0 0
422 450 578 246 345 330 380 416 414 310 80 132 118 23 0 2 23 28 3 2 2 0 0 0 0 0 0 0 0 0 0 0 0 0 0 0 0 0 0 0 0 0
422 459 640 474 452 559 619 494 466 414 245 242 142 74 33 10 14 10 5 32 22 5 0 0 0 0 0 0 0 0 0 0 0 0 0 0 0 0 0 0 0 0
544 500 658 510 533 610 718 603 622 582 441 374 381 358 224 81 38 39 48 41 166 76 71 78 71 44 42 27 10 6 2 4 0 0 0 0 0 0 0 0 0 0
667 551 553 506 553 359 354 610 732 763 699 682 533 483 363 305 179 102 147 149 154 177 169 201 196 181 130 110 81 35 8 4 3 5 0 0 0 0 0 0 0 4
760 703 704 708 663 679 693 619 637 871 694 670 655 589 370 335 330 200 217 270 314 328 285 286 224 112 252 239 105 27 17 16 27 15 9 68 3 0 0 0 0 0
905 910 933 928 852 575 546 624 756 798 848 890 578 489 382 237 231 227 108 323 448 400 414 336 196 198 181 277 229 278 256 196 135 136 66 60 110 0 0 30 0 0
948 982 991 884 731 512 523 554 587 771 739 546 415 415 476 412 497 496 398 114 169 502 418 302 287 385 336 336 304 268 280 295 213 90 40 38 12 0 0 0 0 140
926 899 784 595 421 536 519 562 498 526 594 599 444 355 352 518 471 378 389 409 427 429 368 450 163 58 16 0 0 98 290 170 252 280 226 47 32 26 10 0 8 103
749 727 682 582 457 347 533 547 521 586 332 83 11 445 541 487 406 169 373 444 369 414 414 331 4 80 0 0 1 0 1 225 372 354 330 342 323 291 265 234 175 0
669 684 672 595 431 402 367 496 382 476 290 218 133 332 453 575 622 533 281 6 203 4 388 355 311 0 0 124 291 332 395 473 517 480 442 376 344 362 379 385 359 290
582 565 525 454 360 442 507 449 376 411 426 185 351 350 311 268 424 31 35 30 25 18 157 322 443 344 441 455 453 457 471 483 468 579 569 556 474 397 368 356 330 318
559 570 560 628 601 562 502 468 459 449 334 192 171 144 250 184 38 52 62 30 18 245 369 124 73 0 0 0 0 0 76 225 211 383 634 685 641 515 470 442 333 306
270 362 283 523 646 495 439 395 370 167 170 286 126 171 51 28 29 50 55 36 42 50 46 28 0 0 0 0 0 0 0 0 6 65 310 560 431 429 417 366 329 296
0 18 2 6 28 79 201 233 248 338 316 100 20 7 17 4 2 2 2 2 3 14 40 33 0 0 0 0 0 0 0 0 0 42 210 322 406 490 445 427 362 182
2 0 0 0 0 0 0 27 112 0 0 0 4 0 0 2 1 0 0 0 0 17 47 42 13 0 0 0 0 0 0 0 0 1 107 290 481 482 403 204 0 0
0 0 0 0 0 0 0 0 0 0 0 0 0 0 0 0 0 0 0 0 6 23 48 46 6 0 0 0 0 0 0 34 91 197 240 335 333 247 0 0 0 0
0 0 0 0 0 0 0 0 0 0 0 0 0 0 0 0 0 0 0 0 0 0 0 19 2 0 0 0 0 0 0 147 160 209 228 231 2 0 0 0 0 0
0 0 0 0 0 0 0 0 0 0 0 0 0 0 0 0 0 0 0 0 0 0 0 0 0 0 0 0 0 0 0 24 75 124 19 0 0 0 0 0 0 0

ECMWFNIL_con_mucape_042.txt.gz
CAPE
1377 1143 1042 586 230 128 63 4 0 0 0 0 0 0 0 0 0 0 0 0 0 0 0 0 0 0 0 0 0 0 0 0 0 0 0 0 0 0 0 0 0 0
1439 1328 778 652 336 209 125 40 1 0 1 0 1 4 2 2 0 0 0 0 0 0 0 0 0 0 0 0 0 0 0 0 0 0 0 0 0 0 0 0 0 0
1384 1241 933 607 261 353 322 171 53 5 4 1 12 14 23 25 23 9 1 0 0 0 0 0 0 0 0 0 0 0 0 0 0 0 0 0 0 0 0 0 0 0
1351 1228 985 689 412 516 450 330 118 31 43 15 18 19 45 34 33 40 26 0 0 1 0 0 0 0 0 0 0 0 0 0 0 0 0 0 0 0 0 0 0 0
1315 1341 1125 842 451 440 326 291 198 224 113 48 46 32 15 33 24 0 1 4 2 3 4 0 0 0 0 0 0 0 0 0 0 0 0 0 0 0 0 0 0 0
1112 989 812 770 506 575 444 472 285 220 171 306 150 34 26 22 3 0 0 3 5 9 18 2 0 0 0 0 0 0 0 0 0 0 0 0 0 0 0 0 0 0
1102 1008 974 850 834 704 443 769 434 42 9 24 78 144 50 25 5 0 0 0 0 3 10 24 6 10 24 21 1 0 0 0 0 0 0 0 0 0 0 0 0 0
1150 1125 1107 1059 1106 773 639 924 487 256 1 294 334 303 131 27 9 5 0 0 0 0 14 12 17 13 54 47 9 34 28 6 0 0 0 0 0 0 0 0 0 0
1215 1163 1163 1288 1325 952 704 478 208 579 525 563 436 375 388 147 115 95 45 49 85 82 63 56 39 65 107 98 68 100 52 36 47 20 4 0 0 0 0 0 0 0
1147 1130 1204 1316 1435 1135 1013 514 320 688 636 607 510 339 274 339 213 205 230 281 276 250 265 230 210 225 199 136 116 116 136 155 83 71 98 74 9 0 0 0 0 0
1049 1184 1233 1143 1089 1119 1183 720 421 448 614 731 843 681 595 513 448 452 460 446 491 402 381 412 433 445 451 462 464 371 293 283 219 177 174 96 93 40 0 0 0 0
1100 1081 1198 1022 779 922 1259 1229 732 483 496 531 745 747 814 736 676 616 556 561 571 517 533 544 537 585 630 650 644 626 596 544 487 476 382 285 213 175 123 130 161 82
1042 1097 1032 1001 812 853 1204 1125 1072 896 483 138 496 690 872 828 660 651 674 623 637 646 632 624 646 708 728 738 718 715 588 531 561 492 436 467 410 329 304 263 268 236
1138 1097 1068 960 919 922 934 856 854 991 863 255 548 686 811 707 757 784 870 876 824 763 553 598 776 776 728 778 747 828 788 783 744 776 649 602 690 612 567 568 537 438
1123 1113 922 979 846 655 650 693 756 743 728 1052 1008 1025 1030 908 1051 1010 1112 854 874 891 876 980 900 750 754 766 733 692 694 832 742 775 857 829 896 874 825 657 562 638
1183 1144 1019 1008 938 834 726 594 661 1083 1384 1291 1041 1047 1219 1064 1104 1050 1003 1010 1047 1044 1080 1169 1057 1231 711 277 343 809 880 678 896 893 1046 1000 829 810 846 773 626 574
893 947 973 983 1009 911 769 680 1022 1194 1346 1155 928 963 920 1020 1049 1026 970 905 903 1065 1084 1202 1239 830 0 0 0 0 627 769 774 1146 1254 1190 1145 1151 1135 1051 985 562
974 909 822 884 847 764 955 990 980 1069 1098 1048 1075 1117 1216 1331 1221 1052 1014 1112 1079 1090 1290 1254 1294 456 0 0 1 1 0 601 1100 1256 1432 1426 1306 1230 1193 1117 1032 994
847 780 782 856 742 760 759 927 1097 1057 1023 1101 985 962 1239 1364 1353 1225 1190 1086 1087 1033 1116 1081 1107 2 3 1 192 294 354 420 1365 1482 1183 957 734 661 464 411 508 457
1092 1138 1078 1004 965 878 814 891 1093 1120 1228 1177 1021 901 762 849 1121 1104 1104 1020 914 1123 1107 1109 208 8 360 392 430 396 403 407 703 409 259 203 229 258 375 237 262 186
364 696 1198 1411 1108 983 1047 1063 1178 1242 1264 704 675 786 833 730 886 706 943 901 504 9 72 26 16 30 14 1 0 0 0 25 790 964 294 257 311 514 467 380 324 362
1 37 177 464 712 769 828 863 998 1224 1177 1021 780 870 857 685 611 427 355 29 51 19 24 5 8 39 4 0 0 0 0 685 383 444 164 159 337 626 429 318 282 267
4 1 7 42 75 258 478 660 921 1055 1046 1014 872 850 673 320 27 47 50 25 13 6 7 12 11 0 0 0 0 0 0 293 144 46 86 177 389 665 376 267 79 118
3 5 1 0 12 52 258 479 569 637 564 379 179 140 109 90 95 44 4 0 0 0 0 0 0 0 0 0 0 0 199 276 2 19 104 169 415 431 208 2 0 0
0 0 0 5 0 4 91 188 196 186 206 194 124 77 65 33 0 0 0 0 0 13 2 4 0 3 0 0 0 0 149 80 20 105 131 185 155 205 83 1 0 0
0 0 0 0 8 32 59 47 47 71 106 61 40 5 13 0 0 0 0 0 20 0 60 57 0 38 0 0 0 0 10 346 26 20 79 93 67 31 18 0 0 0

ECMWFNIL_con_mucape_045.txt.gz
CAPE
765 656 524 267 136 46 6 0 1 6 2 2 0 0 0 0 0 0 0 0 0 0 0 0 0 0 0 0 0 0 0 0 0 0 0 0 0 0 0 0 0 0
826 473 391 292 93 24 3 1 7 10 5 0 0 0 0 0 0 0 0 0 0 0 0 0 0 0 0 0 0 0 0 0 0 0 0 0 0 0 0 0 0 0
972 876 526 259 86 87 18 9 14 8 6 1 0 0 0 0 0 0 0 0 0 0 0 0 0 0 0 0 0 0 0 0 0 0 0 0 0 0 0 0 0 0
1129 1077 596 195 183 207 101 44 9 3 21 16 3 9 14 3 2 0 0 0 0 0 0 0 0 0 0 0 0 0 0 0 0 0 0 0 0 0 0 0 0 0
1345 1007 838 257 302 335 146 36 24 9 11 23 20 21 13 27 15 0 0 0 0 0 0 0 0 0 0 0 0 0 0 0 0 0 0 0 0 0 0 0 0 0
1128 1031 931 279 94 234 196 68 73 20 17 19 30 9 26 20 12 3 6 0 0 0 0 0 0 0 0 0 0 0 0 0 0 0 0 0 0 0 0 0 0 0
1248 981 805 578 63 88 1 81 228 188 235 92 9 12 22 19 6 8 2 6 1 0 0 4 9 6 5 0 0 0 0 0 0 0 0 0 0 0 0 0 0 0
992 1255 1208 811 267 71 31 241 192 132 299 147 45 13 22 6 0 15 23 6 8 13 8 4 10 40 41 14 0 4 2 0 0 0 0 0 0 0 0 0 0 0
1230 1081 1134 730 835 279 108 534 153 0 1 46 208 2 1 5 1 10 9 18 29 29 19 22 27 50 146 100 32 26 52 41 5 0 0 0 0 0 0 0 0 0
1481 1547 1456 1265 1309 558 340 624 295 77 18 125 314 161 18 8 15 7 8 21 26 36 47 67 72 187 200 158 148 124 68 44 84 89 39 10 0 0 0 0 0 0
1242 1406 1506 1394 1364 1005 160 325 64 205 106 195 303 251 198 148 61 38 37 52 158 97 126 146 188 252 301 315 363 340 324 250 187 184 196 158 73 60 2 0 0 5
1268 1151 1357 1427 1379 1065 929 191 173 478 425 254 292 71 303 304 145 228 200 246 236 198 202 248 290 340 383 420 450 506 534 477 456 446 371 307 290 246 21 142 170 42
1334 1259 1364 1482 1055 1085 1237 1194 225 160 363 303 387 306 331 321 304 321 273 300 223 207 398 388 425 534 677 865 929 633 778 704 662 591 584 597 518 404 346 329 305 280
1358 1224 1194 1240 1042 949 983 1065 1033 298 227 128 210 238 385 324 383 385 426 363 376 364 511 566 566 728 803 970 1035 1020 876 682 636 586 464 446 546 485 631 570 558 554
1260 1252 1166 990 788 723 896 850 681 1022 891 573 427 321 455 483 355 306 409 432 550 761 707 630 772 794 778 845 824 709 921 991 983 747 673 671 740 624 626 774 794 813
1264 1376 1167 1016 1014 998 943 1091 1026 891 990 1017 1069 1112 599 439 59 230 492 599 666 863 721 824 878 864 1128 583 763 1064 1185 935 1124 1099 892 792 936 978 1020 990 992 834
1179 1126 1014 963 1042 1082 1065 1195 996 1025 936 1012 907 678 472 400 791 1002 1049 996 780 689 632 718 1144 1176 915 594 550 470 990 1052 1046 1084 905 885 622 481 756 620 988 912
1202 1017 972 849 958 864 881 864 890 869 903 575 558 624 494 542 598 619 783 542 315 373 378 370 706 648 898 584 282 0 0 378 716 787 780 440 526 292 266 566 601 794
1067 1039 1123 1059 1133 1095 1032 970 888 925 798 719 492 521 804 856 693 820 699 530 533 440 776 408 358 921 739 452 0 0 0 0 353 447 690 38 73 0 0 0 256 496
1087 1212 1159 1175 1120 991 918 774 836 781 695 680 643 529 581 680 685 874 756 716 892 809 801 387 507 719 498 0 0 0 0 0 455 729 504 350 80 159 349 186 102 101
874 1023 1352 1393 1286 1139 1180 805 674 717 634 773 750 626 603 668 880 1341 1041 973 872 617 468 433 482 260 22 218 349 421 85 395 628 769 539 474 193 30 55 47 87 144
3 42 309 515 764 782 867 1073 986 836 747 1138 1067 719 866 685 418 1128 908 800 560 409 375 116 10 183 196 32 30 22 41 90 702 118 20 11 51 94 56 87 108 119
0 0 0 13 33 141 248 468 635 1084 1334 1228 885 835 996 1001 674 713 828 756 412 279 66 4 2 3 1 0 7 22 22 259 92 27 14 8 70 85 106 414 167 262
0 0 0 0 0 1 40 114 269 467 843 844 1102 1195 995 705 643 550 530 369 242 152 73 6 0 0 0 2 5 25 23 432 44 0 2 6 47 76 153 2 0 0
0 0 0 0 0 1 18 98 126 128 183 330 346 270 283 254 266 200 174 113 91 68 7 0 0 15 0 0 0 0 0 126 28 0 12 39 40 56 123 12 0 0
0 0 0 0 7 20 44 42 47 97 116 157 127 81 108 122 84 81 94 47 10 9 0 0 0 16 0 0 0 0 0 142 479 78 87 100 39 187 187 47 0 0

ECMWFNIL_con_mucape_048.txt.gz
CAPE
995 964 736 523 533 522 300 348 252 335 535 379 34 0 2 0 0 1 43 15 0 0 0 0 0 0 0 0 0 0 0 0 0 0 0 0 0 0 0 0 0 3
934 950 583 525 532 211 348 383 258 423 495 334 148 35 0 0 0 0 0 0 0 0 0 0 0 0 0 0 0 0 0 0 0 0 0 0 0 0 0 0 0 0
1001 936 725 790 519 417 329 342 434 444 307 226 93 25 3 3 0 0 0 0 0 0 0 0 0 0 0 0 0 0 0 0 0 0 0 0 0 0 0 0 0 0
919 978 880 758 495 435 301 419 338 330 378 92 55 49 16 5 42 9 0 0 0 0 0 0 0 0 0 0 0 0 0 0 0 0 0 0 0 0 0 0 0 0
1270 1034 772 592 513 406 342 265 131 262 232 166 132 46 23 44 15 0 2 4 0 0 0 0 0 0 0 0 0 0 0 0 0 0 0 0 0 0 0 0 18 10
1311 938 507 466 498 394 325 218 82 105 138 216 157 71 110 74 14 5 1 0 0 0 0 0 0 0 0 0 3 0 0 0 0 0 0 0 0 0 0 0 0 0
1366 1251 730 257 390 468 207 228 158 24 56 199 72 146 127 89 19 10 3 3 0 0 0 10 8 2 1 4 3 8 0 0 0 0 0 0 0 0 0 0 0 0
1364 1220 1299 563 428 426 223 243 256 81 300 82 68 166 68 40 9 31 16 6 0 0 4 4 5 15 17 1 0 3 3 0 0 6 0 0 0 0 0 0 0 0
1226 983 975 1138 402 156 114 218 464 516 387 250 175 107 84 57 8 63 18 3 15 6 0 0 4 25 118 40 10 1 2 12 1 3 0 0 0 0 0 0 0 0
1329 981 933 966 526 182 190 468 282 261 186 228 136 2 8 88 53 8 7 6 13 2 3 2 4 156 153 48 0 40 54 12 34 36 2 0 0 0 0 0 3 0
1297 1265 1210 884 1070 341 432 496 31 28 6 34 367 29 1 64 24 3 11 9 116 6 1 3 30 69 130 185 307 201 125 181 93 14 163 102 1 31 0 21 1 66
1264 1055 1081 1174 1083 944 635 446 82 36 25 48 226 205 163 152 9 0 0 7 24 15 11 31 66 136 161 186 274 415 449 377 285 351 238 304 312 226 1 59 24 78
788 810 726 936 1210 1296 884 484 386 371 167 172 275 217 454 450 175 119 162 117 31 82 81 71 90 184 245 372 416 400 603 535 596 667 532 536 592 424 264 320 263 244
822 615 994 1124 703 716 1091 590 352 500 520 298 463 249 395 272 237 190 423 304 300 242 233 482 374 294 220 361 447 653 822 822 749 774 721 687 749 726 646 579 476 414
600 363 666 453 373 541 481 430 405 475 908 355 429 552 552 398 362 310 357 200 176 419 532 464 279 114 57 60 40 652 874 825 872 756 490 450 450 543 353 99 11 38
662 610 710 642 613 548 492 208 280 403 478 329 737 923 979 947 776 658 495 294 589 445 415 124 129 334 206 412 548 439 720 910 638 447 344 97 60 394 277 214 123 269
608 535 684 663 594 540 424 381 456 470 464 488 781 722 746 894 877 677 459 314 50 188 238 2 16 131 289 499 528 434 513 700 580 321 375 270 184 303 373 382 254 447
611 486 645 673 564 610 549 532 479 524 584 565 517 589 649 328 741 856 631 618 397 395 387 273 67 53 3 2 0 279 468 395 368 425 411 369 194 125 403 479 386 271
780 726 711 838 752 722 654 574 586 623 549 669 588 677 878 882 864 936 778 600 486 383 552 520 203 273 317 0 0 0 428 406 88 680 386 523 275 95 128 197 129 35
565 523 633 639 781 623 788 590 590 690 631 662 760 880 794 586 516 518 528 561 474 399 386 308 73 1 0 0 0 495 546 77 9 699 510 260 178 178 217 224 219 16
458 604 679 630 577 598 588 498 602 691 660 737 793 611 508 436 552 578 563 552 529 552 456 149 259 0 0 406 611 593 194 0 0 420 797 755 422 319 551 525 351 253
5 391 604 734 765 758 805 525 631 982 876 730 613 617 601 589 659 542 562 508 511 543 516 562 593 296 400 417 268 0 157 272 68 413 787 729 668 382 586 508 226 153
0 0 0 0 0 6 285 962 1049 875 866 610 568 632 628 638 560 529 580 525 543 492 508 501 486 451 253 0 116 305 332 410 314 552 631 522 489 206 7 0 0 0
0 0 0 0 1 1 65 342 377 947 882 739 813 674 814 778 590 584 558 583 602 593 482 293 261 147 0 39 250 40 0 309 379 434 26 127 150 50 0 0 0 0
0 0 0 0 0 9 76 58 90 95 120 803 662 673 712 540 464 266 342 367 373 399 228 183 47 0 0 0 0 0 0 0 52 113 122 72 102 18 0 0 0 0
0 0 0 0 0 0 16 40 19 36 168 319 433 180 221 384 203 224 282 229 261 149 56 21 10 0 0 0 0 0 0 0 0 1 94 63 38 6 0 0 0 0

ECMWFNIL_con_mucape_051.txt.gz
CAPE
20 0 0 0 0 0 0 0 0 0 0 0 0 0 0 0 0 0 0 0 0 0 0 0 0 0 0 0 0 0 0 0 0 0 0 0 0 0 0 0 0 0
50 0 0 0 0 0 0 0 0 0 0 0 0 0 0 0 0 0 0 0 0 0 0 0 0 0 0 0 0 0 0 0 0 0 0 0 0 0 0 0 0 0
138 4 0 0 0 0 0 0 0 0 0 0 0 0 0 0 0 0 0 0 0 0 0 0 0 0 0 0 0 0 0 0 0 0 0 0 0 0 0 0 0 0
236 10 2 0 0 0 0 0 0 0 0 0 0 0 0 0 0 0 0 0 0 0 0 0 0 0 0 0 0 0 0 0 0 0 0 0 0 0 0 0 0 0
168 238 28 0 0 0 0 0 0 0 0 0 0 0 0 0 0 0 0 0 0 0 0 0 0 0 0 0 0 0 0 0 0 0 0 0 0 0 0 0 0 0
438 146 1 0 0 0 0 0 0 0 0 0 0 0 0 0 0 0 0 0 0 0 0 0 0 0 0 0 0 0 0 0 0 0 0 0 0 0 0 0 0 0
553 15 4 3 3 0 0 0 0 0 0 0 0 0 0 0 0 0 0 0 0 0 0 0 0 0 0 0 0 0 0 0 0 0 0 0 0 0 0 0 0 0
555 2 8 13 16 12 2 0 0 0 2 0 0 0 0 0 0 0 0 0 0 0 0 0 0 0 0 0 0 0 0 0 0 0 0 0 0 0 0 0 0 0
753 460 14 18 12 4 4 2 2 10 0 0 0 0 0 0 0 0 0 0 0 0 0 0 0 0 0 0 0 0 0 0 0 0 0 0 0 0 0 0 0 0
784 543 227 4 1 2 7 58 64 40 13 1 0 0 0 0 0 0 0 0 0 0 0 0 1 1 0 0 0 0 0 0 0 0 0 0 0 0 0 0 0 0
761 422 369 42 1 9 154 148 143 93 29 23 0 0 0 0 0 0 0 0 0 0 0 0 1 0 0 0 0 0 0 0 0 0 0 0 0 0 0 0 0 0
953 698 553 262 57 226 282 207 134 82 5 7 1 6 2 0 0 0 0 0 0 0 0 0 0 1 4 12 32 19 2 0 0 0 8 6 0 0 0 0 0 0
863 809 613 491 92 93 316 237 149 0 1 3 12 10 17 7 1 0 0 0 0 0 0 0 1 3 2 16 46 100 67 43 68 14 273 275 256 28 1 0 0 0
849 841 718 594 293 157 229 222 208 127 8 17 227 187 4 21 0 0 0 0 0 0 0 0 0 0 0 34 52 161 452 334 377 291 87 260 296 295 99 0 0 0
617 640 299 484 474 220 26 68 103 201 93 290 166 186 83 184 0 0 38 0 0 12 2 1 3 12 2 3 13 286 446 457 403 425 405 116 64 328 314 189 27 175
448 545 384 497 666 473 338 62 133 293 333 490 398 276 106 62 57 42 7 0 0 0 0 0 0 0 0 0 0 0 319 340 443 517 461 379 139 26 0 0 11 154
418 496 500 481 349 413 533 288 198 239 352 474 526 466 281 122 31 7 0 0 0 0 0 0 0 0 0 0 0 394 404 548 488 462 416 414 229 4 0 0 0 0
406 160 342 466 432 538 656 486 307 172 371 436 478 553 444 494 248 30 0 0 0 73 21 18 5 0 0 0 288 401 409 442 472 457 374 300 156 141 0 0 0 0
516 480 397 415 442 418 286 269 367 372 433 530 580 513 561 600 532 434 104 26 0 0 14 1 0 0 0 0 170 308 345 300 272 0 0 0 0 0 0 0 0 0
407 408 116 357 468 524 395 304 354 457 622 712 668 635 640 531 530 482 435 403 381 238 0 2 0 0 0 0 0 0 0 0 0 14 0 69 0 0 0 0 0 0
70 211 44 303 425 394 483 428 342 508 552 677 643 690 648 573 454 416 411 402 407 424 374 335 292 53 0 0 0 0 0 0 0 0 270 256 131 35 0 0 0 0
246 125 8 182 22 272 418 417 447 430 568 651 677 691 598 460 380 360 397 420 435 441 464 453 404 260 0 0 0 0 0 281 185 0 102 525 557 234 0 2 0 0
8 2 0 0 1 74 224 216 453 744 676 692 669 547 517 483 496 493 486 493 503 494 482 500 480 425 400 263 95 346 410 0 0 0 1 407 648 430 218 248 0 104
1 0 0 0 0 0 0 150 296 568 697 636 502 498 538 550 546 497 467 453 414 417 444 488 523 500 501 542 493 358 64 0 0 0 0 311 495 394 0 0 0 0
0 0 0 0 0 0 0 0 0 13 427 590 471 573 601 580 537 498 459 436 443 457 474 530 572 513 386 340 400 316 235 328 362 248 16 0 145 42 0 0 0 0
0 0 0 0 0 0 0 0 0 0 0 165 432 560 471 540 614 549 411 318 262 264 324 398 422 246 157 138 206 261 295 291 351 202 0 0 73 0 0 0 0 120

ECMWFNIL_con_mucape_054.txt.gz
CAPE
402 427 365 0 0 0 0 0 144 64 0 0 0 0 0 0 0 0 0 0 0 0 0 0 0 0 0 0 0 0 0 0 0 0 0 0 285 0 0 104 366 456
605 544 0 0 0 0 0 0 0 0 0 0 0 0 0 0 0 0 0 0 0 0 0 0 0 0 0 0 0 0 0 0 0 0 0 0 0 0 0 0 305 408
512 263 0 0 0 0 0 18 81 118 0 0 0 0 0 0 0 0 0 0 0 0 0 0 0 0 0 0 0 0 0 0 0 0 0 0 0 0 0 0 31 290
290 0 0 0 0 0 160 206 174 119 21 0 0 0 0 0 0 0 0 0 0 0 0 0 0 0 0 0 0 0 0 0 0 0 0 0 0 0 0 0 0 0
310 72 0 0 0 1 225 239 175 141 17 0 0 0 0 0 0 0 0 0 0 0 0 0 0 0 0 0 0 0 0 0 0 0 0 0 0 0 0 0 0 0
282 0 95 137 90 13 169 209 186 144 92 68 0 0 0 0 0 0 0 0 0 0 0 0 0 0 0 0 0 0 0 0 0 0 0 0 0 0 0 0 0 0
43 190 184 157 51 82 102 116 130 100 88 3 0 0 0 0 0 0 0 0 0 0 0 0 0 0 0 0 0 0 0 0 0 0 0 0 0 0 0 0 0 0
230 175 196 196 156 1 5 5 71 76 0 0 0 0 0 0 0 0 0 0 0 0 0 0 0 0 0 0 0 0 0 0 0 0 0 0 0 0 0 0 0 0
184 113 210 164 130 0 0 0 0 0 1 0 0 0 0 0 0 0 0 0 0 0 0 0 0 0 0 0 0 0 0 0 0 0 0 0 0 0 0 0 0 0
195 12 0 0 0 0 0 0 10 58 2 0 0 0 0 0 0 0 0 0 0 0 0 0 0 0 0 0 0 0 0 0 0 0 0 0 0 0 0 0 0 0
63 4 0 60 86 0 0 3 63 74 0 0 0 4 1 0 0 0 0 1 0 0 0 0 0 0 0 0 0 0 0 0 0 0 0 0 0 0 0 0 0 0
162 98 38 0 2 1 5 19 40 63 42 1 0 0 0 0 0 0 0 2 3 0 0 0 0 0 0 0 0 0 0 0 0 0 0 0 0 0 0 0 0 0
256 213 72 63 18 0 0 0 0 0 0 0 0 0 0 0 0 0 0 0 7 2 0 0 0 0 0 0 0 0 0 0 0 0 0 0 0 0 0 0 0 0
276 242 36 66 91 29 0 0 0 0 0 0 0 0 0 1 0 1 2 7 7 0 0 0 0 0 0 0 0 0 0 0 0 0 0 0 0 0 0 0 0 0
381 458 185 67 112 149 0 34 99 172 29 14 14 0 1 6 9 12 16 6 3 0 0 0 0 0 0 0 5 0 0 0 0 0 0 0 0 0 0 0 0 0
200 539 127 10 194 175 235 251 265 258 244 101 87 25 44 26 10 6 5 4 12 2 0 0 0 0 0 0 331 131 95 231 187 187 202 84 83 82 0 0 0 0
602 454 509 406 279 219 0 0 0 209 362 304 174 26 35 38 32 28 16 4 1 0 0 0 0 0 0 0 16 416 440 406 338 298 312 325 281 225 276 290 264 80
429 464 437 466 504 335 0 0 0 50 317 377 396 318 18 36 31 34 32 17 8 96 3 10 10 15 23 7 0 174 318 410 431 412 428 446 464 435 386 233 0 0
218 284 468 473 524 491 450 337 42 0 261 344 386 426 390 271 252 5 20 21 24 39 49 32 24 21 21 13 238 331 405 426 411 382 399 422 413 413 407 288 0 0
214 266 360 387 373 418 418 454 412 300 131 306 418 460 470 409 0 300 96 0 0 73 121 3 4 12 19 9 306 359 395 425 462 462 410 373 354 325 13 0 0 0
80 158 195 221 264 379 376 280 319 323 296 314 382 472 452 443 433 449 340 112 55 0 219 234 53 181 247 274 280 278 296 289 285 17 0 203 156 56 0 0 0 0
5 6 7 165 222 332 358 294 267 226 273 274 211 60 92 98 304 358 415 412 380 351 379 249 0 360 292 292 290 268 236 195 0 0 0 0 0 0 0 0 0 0
0 7 7 1 17 7 40 1 0 10 240 418 423 470 406 422 401 326 349 379 368 381 380 377 119 418 433 407 374 309 240 0 0 0 0 0 0 35 98 165 0 0
32 27 18 8 10 9 10 2 4 5 127 261 414 537 514 470 422 418 386 406 432 444 447 436 453 449 462 455 412 334 284 97 0 0 0 0 0 257 554 431 0 0
0 5 10 8 8 8 11 8 4 6 2 0 43 134 203 199 312 380 418 412 401 370 383 384 375 388 404 439 446 451 445 432 356 282 15 0 0 366 523 369 0 0
0 0 0 0 0 0 0 0 0 0 0 0 0 0 0 0 0 0 169 371 409 377 355 361 355 361 392 455 478 440 395 418 413 304 43 0 75 344 452 302 0 0

ECMWFNIL_con_mucape_057.txt.gz
CAPE
438 483 112 177 183 208 202 142 5 52 0 0 0 0 0 0 0 0 0 0 0 0 0 0 0 0 0 0 0 0 0 0 244 256 241 235 237 214 202 188 273 370
520 420 32 186 180 137 117 108 114 112 0 0 0 0 0 0 0 0 0 0 0 0 0 0 0 0 0 0 0 0 0 0 0 0 95 89 56 0 0 247 290 284
452 112 145 172 104 37 128 146 159 139 95 0 0 0 0 0 0 0 0 0 0 0 0 0 0 0 0 0 0 0 0 0 0 0 0 0 0 0 8 334 384 272
235 392 497 309 69 0 134 158 142 32 0 0 0 0 0 0 0 0 0 0 0 0 0 0 0 0 0 0 0 0 0 0 0 0 0 0 0 0 269 378 359 253
573 602 361 81 100 122 126 97 62 66 10 0 0 0 0 0 0 0 0 0 0 0 0 0 0 0 0 0 0 0 0 0 0 0 0 0 0 0 0 243 311 290
656 533 79 0 82 82 83 75 141 19 6 0 0 0 0 0 0 0 0 0 0 0 0 0 0 0 0 0 0 0 0 0 0 0 0 0 0 0 0 0 0 40
446 290 17 0 0 0 130 209 11 0 0 0 0 0 0 0 0 0 0 0 0 0 0 0 0 0 0 0 0 0 0 0 0 0 0 0 0 0 0 0 0 0
242 234 0 0 0 0 16 220 0 0 0 0 0 0 0 0 0 0 0 0 0 0 0 0 0 0 0 0 0 0 0 0 0 0 0 0 0 0 0 0 0 0
266 209 0 0 0 0 29 203 92 0 0 0 0 0 0 0 0 0 0 0 0 0 0 0 0 0 0 0 0 0 0 0 0 0 0 0 0 0 0 0 0 0
206 0 0 0 0 0 28 100 51 0 0 0 0 0 0 0 0 0 0 0 0 0 0 0 0 0 0 0 0 0 0 0 0 0 0 0 0 0 0 0 0 0
92 0 0 0 0 0 0 17 0 0 0 0 0 0 0 0 0 0 0 0 0 0 0 0 0 0 0 0 0 0 0 0 0 0 0 0 0 0 0 0 0 0
0 0 0 0 0 0 0 0 0 0 0 0 0 0 0 0 0 0 0 0 0 0 0 0 0 0 0 0 0 0 0 0 0 0 0 0 0 0 0 0 0 0
138 0 107 32 32 7 0 0 0 0 0 0 0 0 0 0 0 0 0 0 0 0 0 0 0 0 0 0 0 0 0 0 0 0 0 0 0 0 0 0 0 0
177 80 81 39 8 0 0 0 0 0 0 0 0 0 0 0 0 0 0 0 0 0 0 0 0 0 0 0 0 0 0 0 0 0 0 0 0 0 0 0 0 0
139 86 15 26 3 0 0 0 0 0 0 0 0 0 0 0 0 0 0 0 0 0 0 0 0 0 0 0 0 0 0 0 0 0 0 0 0 0 0 0 0 0
0 33 8 31 8 3 2 0 0 0 0 0 0 0 0 0 0 0 0 0 0 0 0 0 0 0 0 0 0 0 0 0 0 0 0 0 0 0 0 0 0 0
17 0 0 0 2 0 0 0 1 0 0 0 0 0 0 0 0 0 0 0 0 0 0 0 0 0 0 0 0 0 0 0 0 0 0 0 0 0 0 0 0 0
5 5 0 0 0 0 0 33 32 16 26 108 35 0 0 0 0 0 0 0 0 0 0 0 0 0 0 0 0 0 0 0 0 0 34 0 0 172 190 199 196 158
3 56 29 0 0 0 0 38 103 144 124 142 9 0 0 0 0 0 0 0 0 0 0 0 0 0 0 0 0 13 16 0 0 153 180 0 0 218 326 361 366 348
0 18 0 0 3 0 0 3 37 185 187 254 293 283 237 142 0 0 2 3 1 0 0 0 0 0 0 0 0 116 24 0 195 240 351 332 330 369 424 481 502 509
0 127 75 34 12 9 11 63 0 0 116 0 312 337 366 400 268 44 23 0 0 0 0 0 0 0 0 0 0 4 2 0 20 0 147 197 227 344 447 473 471 444
23 72 187 186 191 128 18 23 22 15 0 0 0 151 68 113 240 58 0 0 5 0 0 0 0 0 0 0 0 0 0 0 0 349 260 0 332 350 364 384 386 355
3 15 142 114 111 176 175 119 156 152 208 214 264 329 352 102 90 94 80 0 291 76 78 0 0 13 71 142 277 253 240 69 193 334 338 326 274 275 253 167 0 0
0 0 2 9 14 0 0 3 10 14 24 2 113 175 173 150 136 38 38 278 305 296 297 0 241 0 190 264 290 322 336 368 361 349 371 382 345 256 156 94 0 0
3 4 13 26 16 10 11 35 59 61 51 53 46 15 71 64 0 0 0 0 0 36 141 208 93 136 326 349 359 383 392 398 385 350 324 301 233 94 190 201 195 268
0 0 1 6 16 16 24 30 42 36 26 32 37 30 18 11 3 0 0 0 0 0 0 0 0 0 11 231 238 258 312 390 420 408 410 416 375 308 258 230 198 260

ECMWFNIL_con_mucape_060.txt.gz
CAPE
606 459 294 222 0 0 0 0 0 0 0 0 0 0 0 0 0 0 0 0 0 0 0 0 0 0 0 0 0 276 383 381 290 301 322 282 250 276 320 424 460 454
508 338 311 188 0 0 0 0 0 0 0 0 0 0 0 0 0 0 0 0 0 0 0 0 0 0 0 0 0 0 0 102 247 247 249 261 260 238 277 301 310 418
468 361 360 134 0 0 0 0 0 0 0 0 0 0 0 0 0 0 0 0 0 0 0 0 0 0 0 0 0 0 0 0 0 0 0 158 158 152 136 171 197 341
442 403 355 0 0 0 0 0 0 0 0 0 0 0 0 0 0 0 0 0 0 0 0 0 0 0 0 0 0 0 0 0 0 0 0 0 0 0 0 237 265 246
461 422 121 0 0 0 0 0 0 0 0 0 0 0 0 0 0 0 0 0 0 0 0 0 0 0 0 0 0 0 0 0 0 0 0 0 0 0 0 353 323 218
459 269 0 273 0 0 0 0 0 0 0 0 0 0 0 0 0 0 0 0 0 0 0 0 0 0 0 0 0 0 0 0 0 0 0 0 0 0 335 376 172 198
535 34 405 307 0 0 0 0 0 0 0 0 0 0 0 0 0 0 0 0 0 0 0 0 0 0 0 0 0 0 0 0 0 0 0 0 0 0 0 203 147 236
343 465 496 0 0 0 0 0 0 0 0 0 0 0 0 0 0 0 0 0 0 0 0 0 0 0 0 0 0 0 0 0 0 0 0 0 0 0 0 0 16 226
578 604 282 0 0 0 0 0 0 0 0 0 0 0 0 0 0 0 0 0 0 0 0 0 0 0 0 0 0 0 0 0 0 0 0 0 0 0 0 0 0 0
736 540 0 0 0 0 0 0 0 0 0 0 0 0 0 0 0 0 0 0 0 0 0 0 0 0 0 0 0 0 0 0 0 0 0 0 0 0 0 0 0 0
702 243 0 0 0 0 0 0 0 0 0 0 0 0 0 0 0 0 0 0 0 0 0 0 0 0 0 0 0 0 0 0 0 0 0 0 0 0 0 0 0 0
460 35 90 0 0 0 0 0 0 0 0 0 0 0 0 0 0 0 0 0 0 0 0 0 0 0 0 0 0 0 0 0 0 0 0 0 0 0 0 0 0 0
251 249 178 0 0 0 0 45 0 0 0 0 0 0 0 0 0 0 0 0 0 0 0 0 0 0 0 0 0 0 0 0 0 0 0 0 0 0 0 0 0 0
224 219 96 0 0 0 0 0 0 0 0 0 0 0 0 0 0 0 0 0 0 0 0 0 0 0 0 0 0 0 0 0 0 0 0 0 0 0 0 0 0 0
0 49 0 4 34 0 0 0 0 0 0 0 0 0 0 0 0 0 0 0 0 0 0 0 0 0 0 0 0 0 0 0 0 0 0 0 0 0 0 0 0 0
32 78 35 26 44 0 0 0 0 0 0 0 0 0 0 0 0 0 0 0 0 0 0 0 0 0 0 0 0 0 0 0 0 0 0 0 0 0 0 0 0 0
161 151 47 42 17 35 13 0 0 0 0 0 0 0 0 0 0 0 0 0 0 0 0 0 0 0 0 0 0 0 0 0 0 0 0 0 0 0 0 0 0 0
46 184 162 38 20 10 0 0 0 0 0 0 0 0 0 0 0 0 0 0 0 0 0 0 0 0 0 0 0 0 0 0 0 0 0 0 0 0 0 0 0 0
0 3 2 0 7 5 0 0 0 0 0 0 0 0 0 0 0 0 0 0 0 0 0 0 0 0 0 0 0 0 0 0 0 0 0 0 0 0 0 0 0 0
0 0 16 6 2 0 0 0 0 0 0 18 8 0 0 0 0 0 0 0 0 0 0 0 0 0 0 0 0 0 0 0 0 0 0 0 0 0 0 145 100 0
1 2 2 0 0 0 0 0 0 0 0 0 151 160 0 0 0 0 0 0 0 0 0 0 0 0 0 0 0 0 0 0 0 0 0 0 0 0 44 4 0 189
56 58 18 0 0 0 2 0 0 0 0 0 153 220 127 68 0 0 136 65 0 0 0 0 0 0 0 0 0 0 0 0 0 0 0 56 0 0 0 64 0 44
13 0 0 0 2 2 14 14 0 0 1 1 0 0 0 0 0 141 194 181 0 0 0 0 0 0 0 0 0 0 0 0 0 0 0 0 191 252 237 179 165 256
11 16 15 14 0 0 0 0 0 1 3 4 0 0 0 0 0 0 0 0 0 0 0 0 0 1 15 1 0 0 0 0 29 166 182 196 251 268 272 234 210 197
1 1 15 6 6 14 18 19 4 7 28 67 121 139 2 42 0 0 0 5 4 10 31 10 0 119 147 78 87 0 142 257 296 339 359 382 381 378 336 308 298 260
5 7 8 8 6 7 8 3 5 9 22 18 14 16 15 9 17 34 11 5 0 0 0 0 0 0 0 0 0 0 0 0 0 8 138 231 275 304 335 335 331 345